Time,TemperatureF,DewpointF,PressureIn,WindDirection,WindDirectionDegrees,WindSpeedMPH,WindSpeedGustMPH,Humidity,HourlyPrecipIn,Conditions,Clouds,dailyrainin,SoftwareType,DateUTC
2013-01-03 00:01:00,14.4,4.4,30.19,SSW,203,1.3,1.8,64,0.00,,,0.00,WUHU216HW,2013-01-03 07:01:00,
2013-01-03 00:03:00,14.4,4.4,30.19,SSW,203,2.0,2.0,64,0.00,,,0.00,WUHU216HW,2013-01-03 07:03:00,
2013-01-03 00:04:00,14.4,4.4,30.19,SW,225,1.8,2.0,64,0.00,,,0.00,WUHU216HW,2013-01-03 07:04:00,
2013-01-03 00:06:00,14.4,4.4,30.19,SW,225,2.0,2.9,64,0.00,,,0.00,WUHU216HW,2013-01-03 07:06:00,
2013-01-03 00:08:00,14.4,4.4,30.19,SW,225,2.0,2.9,64,0.00,,,0.00,WUHU216HW,2013-01-03 07:08:00,
2013-01-03 00:09:00,14.4,4.8,30.19,SW,225,2.7,2.9,65,0.00,,,0.00,WUHU216HW,2013-01-03 07:09:00,
2013-01-03 00:11:00,14.4,4.8,30.18,WSW,248,3.4,3.4,65,0.00,,,0.00,WUHU216HW,2013-01-03 07:11:00,
2013-01-03 00:13:00,14.6,4.9,30.18,SW,225,2.5,3.4,65,0.00,,,0.00,WUHU216HW,2013-01-03 07:13:00,
2013-01-03 00:14:00,14.6,4.9,30.18,SW,225,3.4,3.4,65,0.00,,,0.00,WUHU216HW,2013-01-03 07:14:00,
2013-01-03 00:15:00,14.6,4.9,30.18,SW,225,3.4,3.4,65,0.00,,,0.00,WUHU216HW,2013-01-03 07:15:00,
2013-01-03 00:16:00,14.8,5.0,30.18,SSW,203,1.8,3.4,65,0.00,,,0.00,WUHU216HW,2013-01-03 07:16:00,
2013-01-03 00:18:00,14.8,5.0,30.18,SSW,203,3.1,3.4,65,0.00,,,0.00,WUHU216HW,2013-01-03 07:18:00,
2013-01-03 00:19:00,14.8,5.0,30.18,SSW,203,3.1,3.4,65,0.00,,,0.00,WUHU216HW,2013-01-03 07:19:00,
2013-01-03 00:20:00,14.8,5.0,30.18,WSW,248,2.5,3.4,65,0.00,,,0.00,WUHU216HW,2013-01-03 07:20:00,
2013-01-03 00:21:00,14.8,5.0,30.18,WSW,248,2.5,3.4,65,0.00,,,0.00,WUHU216HW,2013-01-03 07:21:00,
2013-01-03 00:23:00,14.8,5.0,30.18,WSW,248,2.5,3.4,65,0.00,,,0.00,WUHU216HW,2013-01-03 07:23:00,
2013-01-03 00:24:00,14.9,5.2,30.18,SW,225,1.8,3.4,65,0.00,,,0.00,WUHU216HW,2013-01-03 07:24:00,
2013-01-03 00:25:00,14.9,5.2,30.18,SSW,203,2.0,3.1,65,0.00,,,0.00,WUHU216HW,2013-01-03 07:25:00,
2013-01-03 00:26:00,14.9,5.2,30.18,SW,225,2.2,3.1,65,0.00,,,0.00,WUHU216HW,2013-01-03 07:26:00,
2013-01-03 00:28:00,14.8,5.0,30.17,WSW,248,2.5,3.1,65,0.00,,,0.00,WUHU216HW,2013-01-03 07:28:00,
2013-01-03 00:29:00,14.9,5.2,30.17,SW,225,2.7,2.7,65,0.00,,,0.00,WUHU216HW,2013-01-03 07:29:00,
2013-01-03 00:30:00,14.8,5.0,30.17,SSW,203,3.4,3.4,65,0.00,,,0.00,WUHU216HW,2013-01-03 07:30:00,
2013-01-03 00:32:00,14.8,5.0,30.17,SW,225,3.6,3.6,65,0.00,,,0.00,WUHU216HW,2013-01-03 07:32:00,
2013-01-03 00:33:00,14.8,5.0,30.16,SW,225,4.0,4.0,65,0.00,,,0.00,WUHU216HW,2013-01-03 07:33:00,
2013-01-03 00:34:00,14.8,5.0,30.16,SW,225,2.9,4.0,65,0.00,,,0.00,WUHU216HW,2013-01-03 07:34:00,
2013-01-03 00:35:00,14.8,5.0,30.16,SW,225,2.9,4.0,65,0.00,,,0.00,WUHU216HW,2013-01-03 07:35:00,
2013-01-03 00:37:00,14.8,5.0,30.16,WSW,248,3.6,4.0,65,0.00,,,0.00,WUHU216HW,2013-01-03 07:37:00,
2013-01-03 00:39:00,14.8,5.0,30.16,SW,225,4.7,4.7,65,0.00,,,0.00,WUHU216HW,2013-01-03 07:39:00,
2013-01-03 00:40:00,14.8,5.0,30.16,SW,225,4.7,4.7,65,0.00,,,0.00,WUHU216HW,2013-01-03 07:40:00,
2013-01-03 00:42:00,14.8,5.0,30.16,SSW,203,3.4,4.7,65,0.00,,,0.00,WUHU216HW,2013-01-03 07:42:00,
2013-01-03 00:44:00,14.6,4.9,30.16,SSW,203,2.5,4.7,65,0.00,,,0.00,WUHU216HW,2013-01-03 07:44:00,
2013-01-03 00:46:00,14.6,4.9,30.15,SW,225,3.4,4.7,65,0.00,,,0.00,WUHU216HW,2013-01-03 07:46:00,
2013-01-03 00:48:00,14.6,4.9,30.15,SW,225,1.8,4.7,65,0.00,,,0.00,WUHU216HW,2013-01-03 07:48:00,
2013-01-03 00:49:00,14.4,4.8,30.15,SW,225,2.2,4.7,65,0.00,,,0.00,WUHU216HW,2013-01-03 07:49:00,
2013-01-03 00:51:00,14.4,4.8,30.15,SW,225,3.4,3.6,65,0.00,,,0.00,WUHU216HW,2013-01-03 07:51:00,
2013-01-03 00:53:00,14.4,4.8,30.15,SW,225,1.3,3.4,65,0.00,,,0.00,WUHU216HW,2013-01-03 07:53:00,
2013-01-03 00:54:00,14.4,4.8,30.15,SW,225,1.6,3.4,65,0.00,,,0.00,WUHU216HW,2013-01-03 07:54:00,
2013-01-03 00:55:00,14.4,4.8,30.15,SW,225,0.7,3.4,65,0.00,,,0.00,WUHU216HW,2013-01-03 07:55:00,
2013-01-03 00:56:00,14.4,4.8,30.15,SW,225,1.1,3.4,65,0.00,,,0.00,WUHU216HW,2013-01-03 07:56:00,
2013-01-03 00:58:00,14.2,4.6,30.14,SW,225,0.7,3.4,65,0.00,,,0.00,WUHU216HW,2013-01-03 07:58:00,
2013-01-03 00:59:00,14.2,4.6,30.14,SSW,203,0.7,3.4,65,0.00,,,0.00,WUHU216HW,2013-01-03 07:59:00,
2013-01-03 01:00:00,14.2,4.6,30.14,SSW,203,0.7,3.4,65,0.00,,,0.00,WUHU216HW,2013-01-03 08:00:00,
2013-01-03 01:01:00,14.2,4.6,30.14,SW,225,0.4,1.6,65,0.00,,,0.00,WUHU216HW,2013-01-03 08:01:00,
2013-01-03 01:03:00,14.0,4.4,30.14,SSW,203,1.1,1.6,65,0.00,,,0.00,WUHU216HW,2013-01-03 08:03:00,
2013-01-03 01:04:00,14.0,4.4,30.15,SW,225,0.2,1.6,65,0.00,,,0.00,WUHU216HW,2013-01-03 08:04:00,
2013-01-03 01:05:00,14.0,4.4,30.15,West,270,0.0,1.6,65,0.00,,,0.00,WUHU216HW,2013-01-03 08:05:00,
2013-01-03 01:06:00,14.0,4.4,30.15,SW,225,0.7,1.6,65,0.00,,,0.00,WUHU216HW,2013-01-03 08:06:00,
2013-01-03 01:08:00,14.0,4.4,30.15,WSW,248,0.4,1.1,65,0.00,,,0.00,WUHU216HW,2013-01-03 08:08:00,
2013-01-03 01:09:00,14.0,4.4,30.15,SW,225,0.2,1.1,65,0.00,,,0.00,WUHU216HW,2013-01-03 08:09:00,
2013-01-03 01:10:00,13.9,4.2,30.15,WNW,293,0.4,1.1,65,0.00,,,0.00,WUHU216HW,2013-01-03 08:10:00,
2013-01-03 01:11:00,13.9,4.2,30.15,WNW,293,0.2,1.1,65,0.00,,,0.00,WUHU216HW,2013-01-03 08:11:00,
2013-01-03 01:13:00,13.9,4.2,30.15,WNW,293,0.2,0.7,65,0.00,,,0.00,WUHU216HW,2013-01-03 08:13:00,
2013-01-03 01:14:00,13.9,4.2,30.15,WSW,248,4.0,4.0,65,0.00,,,0.00,WUHU216HW,2013-01-03 08:14:00,
2013-01-03 01:15:00,13.9,4.2,30.15,West,270,0.9,4.0,65,0.00,,,0.00,WUHU216HW,2013-01-03 08:15:00,
2013-01-03 01:16:00,13.9,4.2,30.15,NW,315,0.2,4.0,65,0.00,,,0.00,WUHU216HW,2013-01-03 08:16:00,
2013-01-03 01:18:00,13.9,4.2,30.15,SW,225,2.5,4.0,65,0.00,,,0.00,WUHU216HW,2013-01-03 08:18:00,
2013-01-03 01:20:00,14.0,4.4,30.16,WSW,248,1.8,4.0,65,0.00,,,0.00,WUHU216HW,2013-01-03 08:20:00,
2013-01-03 01:21:00,14.0,4.4,30.16,WNW,293,1.1,4.0,65,0.00,,,0.00,WUHU216HW,2013-01-03 08:21:00,
2013-01-03 01:24:00,14.0,4.4,30.16,WSW,248,1.1,4.0,65,0.00,,,0.00,WUHU216HW,2013-01-03 08:24:00,
2013-01-03 01:25:00,14.0,4.4,30.15,West,270,1.1,2.5,65,0.00,,,0.00,WUHU216HW,2013-01-03 08:25:00,
2013-01-03 01:26:00,14.0,4.4,30.15,West,270,1.1,2.5,65,0.00,,,0.00,WUHU216HW,2013-01-03 08:26:00,
2013-01-03 01:29:00,14.2,5.0,30.15,West,270,1.6,2.7,66,0.00,,,0.00,WUHU216HW,2013-01-03 08:29:00,
2013-01-03 01:30:00,14.4,5.0,30.15,NW,315,1.6,2.7,66,0.00,,,0.00,WUHU216HW,2013-01-03 08:30:00,
2013-01-03 01:31:00,14.4,5.0,30.15,West,270,1.1,2.7,66,0.00,,,0.00,WUHU216HW,2013-01-03 08:31:00,
2013-01-03 01:34:00,14.4,5.0,30.16,NW,315,2.2,2.7,66,0.00,,,0.00,WUHU216HW,2013-01-03 08:34:00,
2013-01-03 01:35:00,14.6,5.2,30.15,WNW,293,2.2,2.7,66,0.00,,,0.00,WUHU216HW,2013-01-03 08:35:00,
2013-01-03 01:36:00,14.6,4.9,30.15,WNW,293,1.8,2.7,65,0.00,,,0.00,WUHU216HW,2013-01-03 08:36:00,
2013-01-03 01:39:00,14.6,4.9,30.15,WNW,293,2.7,3.1,65,0.00,,,0.00,WUHU216HW,2013-01-03 08:39:00,
2013-01-03 01:40:00,14.6,4.9,30.15,West,270,2.5,3.1,65,0.00,,,0.00,WUHU216HW,2013-01-03 08:40:00,
2013-01-03 01:42:00,14.8,5.0,30.15,West,270,2.2,3.1,65,0.00,,,0.00,WUHU216HW,2013-01-03 08:42:00,
2013-01-03 01:44:00,14.8,5.0,30.16,West,270,4.7,4.7,65,0.00,,,0.00,WUHU216HW,2013-01-03 08:44:00,
2013-01-03 01:45:00,14.8,5.0,30.15,WSW,248,3.8,4.7,65,0.00,,,0.00,WUHU216HW,2013-01-03 08:45:00,
2013-01-03 01:47:00,14.8,5.0,30.15,WNW,293,0.7,4.7,65,0.00,,,0.00,WUHU216HW,2013-01-03 08:47:00,
2013-01-03 01:49:00,14.8,5.0,30.16,WSW,248,4.7,4.7,65,0.00,,,0.00,WUHU216HW,2013-01-03 08:49:00,
2013-01-03 01:50:00,14.9,5.2,30.16,SW,225,5.8,5.8,65,0.00,,,0.00,WUHU216HW,2013-01-03 08:50:00,
2013-01-03 01:51:00,14.9,5.2,30.16,SW,225,5.8,5.8,65,0.00,,,0.00,WUHU216HW,2013-01-03 08:51:00,
2013-01-03 01:52:00,14.9,5.2,30.16,WNW,293,2.7,5.8,65,0.00,,,0.00,WUHU216HW,2013-01-03 08:52:00,
2013-01-03 01:54:00,15.1,5.4,30.16,SSW,203,1.3,5.8,65,0.00,,,0.00,WUHU216HW,2013-01-03 08:54:00,
2013-01-03 01:56:00,15.1,5.4,30.16,NW,315,1.8,5.8,65,0.00,,,0.00,WUHU216HW,2013-01-03 08:56:00,
2013-01-03 01:58:00,15.3,5.6,30.16,West,270,4.0,5.8,65,0.00,,,0.00,WUHU216HW,2013-01-03 08:58:00,
2013-01-03 01:59:00,15.5,5.7,30.16,SW,225,5.8,5.8,65,0.00,,,0.00,WUHU216HW,2013-01-03 08:59:00,
2013-01-03 02:01:00,15.5,5.7,30.16,WSW,248,3.1,5.8,65,0.00,,,0.00,WUHU216HW,2013-01-03 09:01:00,
2013-01-03 02:03:00,15.5,5.7,30.16,SW,225,2.5,5.8,65,0.00,,,0.00,WUHU216HW,2013-01-03 09:03:00,
2013-01-03 02:04:00,15.5,5.7,30.16,West,270,1.1,5.8,65,0.00,,,0.00,WUHU216HW,2013-01-03 09:04:00,
2013-01-03 02:06:00,15.7,5.9,30.16,WSW,248,2.0,5.8,65,0.00,,,0.00,WUHU216HW,2013-01-03 09:06:00,
2013-01-03 02:08:00,15.7,5.9,30.16,WNW,293,3.1,5.8,65,0.00,,,0.00,WUHU216HW,2013-01-03 09:08:00,
2013-01-03 02:10:00,15.5,5.7,30.16,West,270,0.4,3.4,65,0.00,,,0.00,WUHU216HW,2013-01-03 09:10:00,
2013-01-03 02:11:00,15.5,5.7,30.16,SW,225,5.1,5.1,65,0.00,,,0.00,WUHU216HW,2013-01-03 09:11:00,
2013-01-03 02:14:00,15.5,5.7,30.16,South,180,1.6,6.7,65,0.00,,,0.00,WUHU216HW,2013-01-03 09:14:00,
2013-01-03 02:15:00,15.5,5.7,30.16,South,180,0.4,6.7,65,0.00,,,0.00,WUHU216HW,2013-01-03 09:15:00,
2013-01-03 02:16:00,15.5,5.7,30.16,SSE,158,0.9,6.7,65,0.00,,,0.00,WUHU216HW,2013-01-03 09:16:00,
2013-01-03 02:19:00,15.3,5.2,30.16,SSW,203,0.2,6.7,64,0.00,,,0.00,WUHU216HW,2013-01-03 09:19:00,
2013-01-03 02:20:00,15.1,5.0,30.16,SSW,203,2.9,6.7,64,0.00,,,0.00,WUHU216HW,2013-01-03 09:20:00,
2013-01-03 02:21:00,15.1,5.0,30.16,SW,225,2.0,6.7,64,0.00,,,0.00,WUHU216HW,2013-01-03 09:21:00,
2013-01-03 02:24:00,14.9,4.9,30.16,SSW,203,3.1,3.1,64,0.00,,,0.00,WUHU216HW,2013-01-03 09:24:00,
2013-01-03 02:25:00,14.8,4.7,30.16,SSW,203,2.5,3.1,64,0.00,,,0.00,WUHU216HW,2013-01-03 09:25:00,
2013-01-03 02:26:00,14.8,4.7,30.16,SW,225,2.9,3.1,64,0.00,,,0.00,WUHU216HW,2013-01-03 09:26:00,
2013-01-03 02:27:00,14.8,4.7,30.16,SW,225,2.9,3.1,64,0.00,,,0.00,WUHU216HW,2013-01-03 09:27:00,
2013-01-03 02:29:00,14.8,4.7,30.16,SSW,203,2.5,3.1,64,0.00,,,0.00,WUHU216HW,2013-01-03 09:29:00,
2013-01-03 02:30:00,14.8,5.0,30.16,SW,225,3.6,3.6,65,0.00,,,0.00,WUHU216HW,2013-01-03 09:30:00,
2013-01-03 02:31:00,14.8,5.0,30.16,SSW,203,2.0,3.6,65,0.00,,,0.00,WUHU216HW,2013-01-03 09:31:00,
2013-01-03 02:32:00,14.8,5.0,30.16,SSW,203,2.0,3.6,65,0.00,,,0.00,WUHU216HW,2013-01-03 09:32:00,
2013-01-03 02:34:00,14.8,5.0,30.16,South,180,3.6,3.8,65,0.00,,,0.00,WUHU216HW,2013-01-03 09:34:00,
2013-01-03 02:35:00,14.8,5.0,30.16,South,180,3.6,3.8,65,0.00,,,0.00,WUHU216HW,2013-01-03 09:35:00,
2013-01-03 02:36:00,14.8,5.0,30.16,SSE,158,3.6,3.8,65,0.00,,,0.00,WUHU216HW,2013-01-03 09:36:00,
2013-01-03 02:37:00,14.8,5.0,30.16,SSE,158,3.6,3.8,65,0.00,,,0.00,WUHU216HW,2013-01-03 09:37:00,
2013-01-03 02:39:00,14.8,5.0,30.16,SSW,203,1.3,3.8,65,0.00,,,0.00,WUHU216HW,2013-01-03 09:39:00,
2013-01-03 02:40:00,14.8,5.0,30.16,SE,135,0.4,3.8,65,0.00,,,0.00,WUHU216HW,2013-01-03 09:40:00,
2013-01-03 02:41:00,14.8,5.0,30.16,SW,225,1.8,3.8,65,0.00,,,0.00,WUHU216HW,2013-01-03 09:41:00,
2013-01-03 02:42:00,14.8,5.0,30.16,SW,225,1.8,3.8,65,0.00,,,0.00,WUHU216HW,2013-01-03 09:42:00,
2013-01-03 02:44:00,14.9,5.2,30.16,SW,225,2.5,6.3,65,0.00,,,0.00,WUHU216HW,2013-01-03 09:44:00,
2013-01-03 02:45:00,14.9,5.2,30.16,SSW,203,0.4,6.3,65,0.00,,,0.00,WUHU216HW,2013-01-03 09:45:00,
2013-01-03 02:47:00,14.9,5.2,30.16,SSW,203,0.4,6.3,65,0.00,,,0.00,WUHU216HW,2013-01-03 09:47:00,
2013-01-03 02:49:00,15.1,5.4,30.16,SW,225,2.5,6.3,65,0.00,,,0.00,WUHU216HW,2013-01-03 09:49:00,
2013-01-03 02:51:00,15.3,5.6,30.16,SW,225,2.5,6.3,65,0.00,,,0.00,WUHU216HW,2013-01-03 09:51:00,
2013-01-03 02:52:00,15.3,5.6,30.16,West,270,1.8,6.3,65,0.00,,,0.00,WUHU216HW,2013-01-03 09:52:00,
2013-01-03 02:55:00,15.5,5.7,30.16,WSW,248,3.8,3.8,65,0.00,,,0.00,WUHU216HW,2013-01-03 09:55:00,
2013-01-03 02:56:00,15.5,5.7,30.16,WSW,248,2.9,3.8,65,0.00,,,0.00,WUHU216HW,2013-01-03 09:56:00,
2013-01-03 02:57:00,15.7,5.9,30.16,SW,225,2.9,3.8,65,0.00,,,0.00,WUHU216HW,2013-01-03 09:57:00,
2013-01-03 03:00:00,15.8,6.0,30.16,WNW,293,3.4,3.8,65,0.00,,,0.00,WUHU216HW,2013-01-03 10:00:00,
2013-01-03 03:01:00,15.8,6.0,30.16,WNW,293,3.4,3.8,65,0.00,,,0.00,WUHU216HW,2013-01-03 10:01:00,
2013-01-03 03:02:00,15.8,6.0,30.16,SW,225,4.0,4.0,65,0.00,,,0.00,WUHU216HW,2013-01-03 10:02:00,
2013-01-03 03:05:00,15.8,5.7,30.16,West,270,1.3,4.9,64,0.00,,,0.00,WUHU216HW,2013-01-03 10:05:00,
2013-01-03 03:06:00,15.8,5.7,30.16,West,270,1.3,4.9,64,0.00,,,0.00,WUHU216HW,2013-01-03 10:06:00,
2013-01-03 03:07:00,15.8,5.7,30.15,SSW,203,0.4,4.9,64,0.00,,,0.00,WUHU216HW,2013-01-03 10:07:00,
2013-01-03 03:10:00,15.8,5.7,30.15,West,270,3.6,4.9,64,0.00,,,0.00,WUHU216HW,2013-01-03 10:10:00,
2013-01-03 03:11:00,15.8,5.7,30.15,West,270,3.6,4.9,64,0.00,,,0.00,WUHU216HW,2013-01-03 10:11:00,
2013-01-03 03:12:00,15.8,5.7,30.15,WSW,248,5.1,5.1,64,0.00,,,0.00,WUHU216HW,2013-01-03 10:12:00,
2013-01-03 03:16:00,16.0,6.2,30.15,West,270,3.1,5.1,65,0.00,,,0.00,WUHU216HW,2013-01-03 10:16:00,
2013-01-03 03:17:00,16.2,6.0,30.14,SW,225,5.4,5.4,64,0.00,,,0.00,WUHU216HW,2013-01-03 10:17:00,
2013-01-03 03:21:00,16.2,6.4,30.14,WSW,248,10.5,10.5,65,0.00,,,0.00,WUHU216HW,2013-01-03 10:21:00,
2013-01-03 03:22:00,16.2,6.4,30.14,SW,225,5.8,10.5,65,0.00,,,0.00,WUHU216HW,2013-01-03 10:22:00,
2013-01-03 03:26:00,16.6,6.8,30.14,West,270,4.5,10.5,65,0.00,,,0.00,WUHU216HW,2013-01-03 10:26:00,
2013-01-03 03:27:00,16.6,6.8,30.14,WNW,293,3.4,10.5,65,0.00,,,0.00,WUHU216HW,2013-01-03 10:27:00,
2013-01-03 03:31:00,16.7,6.9,30.14,WSW,248,4.5,8.1,65,0.00,,,0.00,WUHU216HW,2013-01-03 10:31:00,
2013-01-03 03:32:00,16.7,6.9,30.14,WSW,248,5.4,8.1,65,0.00,,,0.00,WUHU216HW,2013-01-03 10:32:00,
2013-01-03 03:36:00,16.7,6.9,30.13,WSW,248,6.5,8.9,65,0.00,,,0.00,WUHU216HW,2013-01-03 10:36:00,
2013-01-03 03:37:00,16.7,6.9,30.13,WSW,248,6.5,8.9,65,0.00,,,0.00,WUHU216HW,2013-01-03 10:37:00,
2013-01-03 03:41:00,16.7,6.9,30.13,WNW,293,6.5,8.9,65,0.00,,,0.00,WUHU216HW,2013-01-03 10:41:00,
2013-01-03 03:42:00,16.7,6.9,30.13,WNW,293,6.5,8.9,65,0.00,,,0.00,WUHU216HW,2013-01-03 10:42:00,
2013-01-03 03:46:00,16.9,7.1,30.12,West,270,1.3,7.4,65,0.00,,,0.00,WUHU216HW,2013-01-03 10:46:00,
2013-01-03 03:47:00,16.9,7.1,30.12,West,270,1.3,7.4,65,0.00,,,0.00,WUHU216HW,2013-01-03 10:47:00,
2013-01-03 03:52:00,16.9,7.1,30.13,WSW,248,3.6,6.3,65,0.00,,,0.00,WUHU216HW,2013-01-03 10:52:00,
2013-01-03 03:57:00,16.9,7.1,30.12,West,270,0.9,6.3,65,0.00,,,0.00,WUHU216HW,2013-01-03 10:57:00,
2013-01-03 04:02:00,17.1,7.3,30.13,South,180,2.5,6.3,65,0.00,,,0.00,WUHU216HW,2013-01-03 11:02:00,
2013-01-03 04:03:00,16.9,7.1,30.13,North,0,0.7,6.0,65,0.00,,,0.00,WUHU216HW,2013-01-03 11:03:00,
2013-01-03 04:07:00,17.1,7.3,30.13,SSW,203,1.1,6.0,65,0.00,,,0.00,WUHU216HW,2013-01-03 11:07:00,
2013-01-03 04:08:00,17.1,7.3,30.13,SW,225,2.7,6.0,65,0.00,,,0.00,WUHU216HW,2013-01-03 11:08:00,
2013-01-03 04:12:00,16.9,7.1,30.13,SW,225,1.6,3.1,65,0.00,,,0.00,WUHU216HW,2013-01-03 11:12:00,
2013-01-03 04:13:00,16.9,7.1,30.13,SW,225,1.6,3.1,65,0.00,,,0.00,WUHU216HW,2013-01-03 11:13:00,
2013-01-03 04:17:00,16.9,6.8,30.13,SSW,203,2.7,3.4,64,0.00,,,0.00,WUHU216HW,2013-01-03 11:17:00,
2013-01-03 04:18:00,16.9,6.8,30.13,SSW,203,2.7,3.4,64,0.00,,,0.00,WUHU216HW,2013-01-03 11:18:00,
2013-01-03 04:23:00,16.7,6.9,30.12,SW,225,4.0,4.3,65,0.00,,,0.00,WUHU216HW,2013-01-03 11:23:00,
2013-01-03 04:28:00,16.7,6.9,30.12,SW,225,1.3,4.3,65,0.00,,,0.00,WUHU216HW,2013-01-03 11:28:00,
2013-01-03 04:33:00,16.6,6.8,30.12,WSW,248,4.0,6.5,65,0.00,,,0.00,WUHU216HW,2013-01-03 11:33:00,
2013-01-03 04:38:00,16.6,6.8,30.11,WSW,248,1.8,6.5,65,0.00,,,0.00,WUHU216HW,2013-01-03 11:38:00,
2013-01-03 04:39:00,16.6,6.8,30.11,WSW,248,6.9,6.9,65,0.00,,,0.00,WUHU216HW,2013-01-03 11:39:00,
2013-01-03 04:43:00,16.7,6.9,30.12,SW,225,2.0,6.9,65,0.00,,,0.00,WUHU216HW,2013-01-03 11:43:00,
2013-01-03 04:44:00,16.7,6.9,30.12,SW,225,5.1,6.9,65,0.00,,,0.00,WUHU216HW,2013-01-03 11:44:00,
2013-01-03 04:48:00,16.7,6.9,30.11,SW,225,4.0,5.4,65,0.00,,,0.00,WUHU216HW,2013-01-03 11:48:00,
2013-01-03 04:49:00,16.7,6.9,30.11,SW,225,4.0,5.4,65,0.00,,,0.00,WUHU216HW,2013-01-03 11:49:00,
2013-01-03 04:53:00,16.7,6.9,30.11,SW,225,1.6,5.4,65,0.00,,,0.00,WUHU216HW,2013-01-03 11:53:00,
2013-01-03 04:54:00,16.7,6.9,30.11,SW,225,1.6,5.4,65,0.00,,,0.00,WUHU216HW,2013-01-03 11:54:00,
2013-01-03 04:58:00,16.7,6.9,30.11,West,270,2.5,3.6,65,0.00,,,0.00,WUHU216HW,2013-01-03 11:58:00,
2013-01-03 04:59:00,16.7,6.9,30.11,West,270,2.5,3.6,65,0.00,,,0.00,WUHU216HW,2013-01-03 11:59:00,
2013-01-03 05:03:00,16.9,7.1,30.11,WSW,248,3.1,5.4,65,0.00,,,0.00,WUHU216HW,2013-01-03 12:03:00,
2013-01-03 05:04:00,16.9,7.1,30.11,WSW,248,4.0,5.4,65,0.00,,,0.00,WUHU216HW,2013-01-03 12:04:00,
2013-01-03 05:08:00,17.1,7.3,30.11,West,270,1.3,5.4,65,0.00,,,0.00,WUHU216HW,2013-01-03 12:08:00,
2013-01-03 05:09:00,17.1,7.3,30.11,West,270,6.3,6.3,65,0.00,,,0.00,WUHU216HW,2013-01-03 12:09:00,
2013-01-03 05:13:00,17.3,7.5,30.11,West,270,3.4,6.3,65,0.00,,,0.00,WUHU216HW,2013-01-03 12:13:00,
2013-01-03 05:14:00,17.3,7.5,30.11,West,270,2.7,6.3,65,0.00,,,0.00,WUHU216HW,2013-01-03 12:14:00,
2013-01-03 05:19:00,17.6,7.8,30.11,WSW,248,3.1,4.3,65,0.00,,,0.00,WUHU216HW,2013-01-03 12:19:00,
2013-01-03 05:20:00,17.6,7.8,30.11,WSW,248,3.1,4.3,65,0.00,,,0.00,WUHU216HW,2013-01-03 12:20:00,
2013-01-03 05:24:00,17.8,8.0,30.11,NW,315,5.1,5.8,65,0.00,,,0.00,WUHU216HW,2013-01-03 12:24:00,
2013-01-03 05:25:00,17.8,8.0,30.11,SW,225,5.4,5.8,65,0.00,,,0.00,WUHU216HW,2013-01-03 12:25:00,
2013-01-03 05:29:00,18.0,8.2,30.10,WSW,248,6.3,6.3,65,0.00,,,0.00,WUHU216HW,2013-01-03 12:29:00,
2013-01-03 05:30:00,18.0,8.2,30.11,West,270,1.1,6.3,65,0.00,,,0.00,WUHU216HW,2013-01-03 12:30:00,
2013-01-03 05:34:00,18.0,8.2,30.10,WSW,248,3.4,6.3,65,0.00,,,0.00,WUHU216HW,2013-01-03 12:34:00,
2013-01-03 05:35:00,18.0,8.2,30.10,WSW,248,3.4,6.3,65,0.00,,,0.00,WUHU216HW,2013-01-03 12:35:00,
2013-01-03 05:39:00,18.0,7.8,30.11,WNW,293,2.5,5.4,64,0.00,,,0.00,WUHU216HW,2013-01-03 12:39:00,
2013-01-03 05:40:00,18.0,7.8,30.11,WNW,293,2.5,5.4,64,0.00,,,0.00,WUHU216HW,2013-01-03 12:40:00,
2013-01-03 05:44:00,18.0,7.8,30.10,WNW,293,7.6,7.6,64,0.00,,,0.00,WUHU216HW,2013-01-03 12:44:00,
2013-01-03 05:45:00,18.0,7.8,30.10,WNW,293,7.6,7.6,64,0.00,,,0.00,WUHU216HW,2013-01-03 12:45:00,
2013-01-03 05:50:00,18.2,8.0,30.10,WSW,248,0.9,7.6,64,0.00,,,0.00,WUHU216HW,2013-01-03 12:50:00,
2013-01-03 05:55:00,18.2,8.0,30.10,NNW,338,2.9,5.6,64,0.00,,,0.00,WUHU216HW,2013-01-03 12:55:00,
2013-01-03 06:00:00,18.4,8.1,30.10,West,270,6.3,9.2,64,0.00,,,0.00,WUHU216HW,2013-01-03 13:00:00,
2013-01-03 06:01:00,18.4,8.1,30.10,West,270,7.2,9.2,64,0.00,,,0.00,WUHU216HW,2013-01-03 13:01:00,
2013-01-03 06:05:00,18.7,8.1,30.10,WSW,248,2.0,9.2,63,0.00,,,0.00,WUHU216HW,2013-01-03 13:05:00,
2013-01-03 06:06:00,18.7,8.1,30.10,West,270,3.1,9.2,63,0.00,,,0.00,WUHU216HW,2013-01-03 13:06:00,
2013-01-03 06:10:00,18.7,8.5,30.10,West,270,2.9,7.2,64,0.00,,,0.00,WUHU216HW,2013-01-03 13:10:00,
2013-01-03 06:11:00,18.9,8.7,30.10,WSW,248,4.9,6.3,64,0.00,,,0.00,WUHU216HW,2013-01-03 13:11:00,
2013-01-03 06:15:00,18.9,8.7,30.10,SW,225,0.9,6.3,64,0.00,,,0.00,WUHU216HW,2013-01-03 13:15:00,
2013-01-03 06:16:00,18.9,8.7,30.10,SW,225,0.9,6.3,64,0.00,,,0.00,WUHU216HW,2013-01-03 13:16:00,
2013-01-03 06:21:00,18.9,8.7,30.10,West,270,8.3,8.3,64,0.00,,,0.00,WUHU216HW,2013-01-03 13:21:00,
2013-01-03 06:26:00,19.1,8.8,30.10,SE,135,0.2,8.3,64,0.00,,,0.00,WUHU216HW,2013-01-03 13:26:00,
2013-01-03 06:31:00,19.1,8.8,30.10,WSW,248,4.0,7.2,64,0.00,,,0.00,WUHU216HW,2013-01-03 13:31:00,
2013-01-03 06:32:00,19.1,8.8,30.10,WSW,248,4.0,7.2,64,0.00,,,0.00,WUHU216HW,2013-01-03 13:32:00,
2013-01-03 06:36:00,19.1,8.5,30.10,WNW,293,2.5,7.2,63,0.00,,,0.00,WUHU216HW,2013-01-03 13:36:00,
2013-01-03 06:37:00,19.1,8.5,30.10,West,270,4.7,7.2,63,0.00,,,0.00,WUHU216HW,2013-01-03 13:37:00,
2013-01-03 06:41:00,19.3,8.7,30.09,WSW,248,1.3,6.0,63,0.00,,,0.00,WUHU216HW,2013-01-03 13:41:00,
2013-01-03 06:42:00,19.3,8.7,30.09,SSW,203,4.7,4.7,63,0.00,,,0.00,WUHU216HW,2013-01-03 13:42:00,
2013-01-03 06:46:00,19.3,8.7,30.09,WSW,248,2.0,4.7,63,0.00,,,0.00,WUHU216HW,2013-01-03 13:46:00,
2013-01-03 06:47:00,19.3,8.7,30.09,WSW,248,2.0,4.7,63,0.00,,,0.00,WUHU216HW,2013-01-03 13:47:00,
2013-01-03 06:51:00,19.3,8.7,30.09,WNW,293,2.9,5.4,63,0.00,,,0.00,WUHU216HW,2013-01-03 13:51:00,
2013-01-03 06:52:00,19.3,8.7,30.09,WNW,293,2.9,5.4,63,0.00,,,0.00,WUHU216HW,2013-01-03 13:52:00,
2013-01-03 06:56:00,19.3,8.3,30.09,SW,225,4.0,5.4,62,0.00,,,0.00,WUHU216HW,2013-01-03 13:56:00,
2013-01-03 06:57:00,19.3,8.3,30.09,West,270,7.2,7.2,62,0.00,,,0.00,WUHU216HW,2013-01-03 13:57:00,
2013-01-03 07:01:00,19.3,8.3,30.09,WSW,248,3.6,7.2,62,0.00,,,0.00,WUHU216HW,2013-01-03 14:01:00,
2013-01-03 07:02:00,19.1,8.1,30.09,SW,225,2.2,7.2,62,0.00,,,0.00,WUHU216HW,2013-01-03 14:02:00,
2013-01-03 07:03:00,19.3,8.3,30.09,SSW,203,2.2,7.2,62,0.00,,,0.00,WUHU216HW,2013-01-03 14:03:00,
2013-01-03 07:07:00,19.1,8.1,30.09,WNW,293,0.2,7.2,62,0.00,,,0.00,WUHU216HW,2013-01-03 14:07:00,
2013-01-03 07:08:00,19.1,8.1,30.09,WSW,248,3.4,4.0,62,0.00,,,0.00,WUHU216HW,2013-01-03 14:08:00,
2013-01-03 07:12:00,19.1,8.1,30.09,SW,225,2.2,5.1,62,0.00,,,0.00,WUHU216HW,2013-01-03 14:12:00,
2013-01-03 07:13:00,19.1,8.1,30.09,West,270,4.9,5.1,62,0.00,,,0.00,WUHU216HW,2013-01-03 14:13:00,
2013-01-03 07:17:00,19.1,8.1,30.09,SW,225,5.6,5.6,62,0.00,,,0.00,WUHU216HW,2013-01-03 14:17:00,
2013-01-03 07:18:00,19.1,8.1,30.09,SSW,203,2.5,5.6,62,0.00,,,0.00,WUHU216HW,2013-01-03 14:18:00,
2013-01-03 07:22:00,19.1,8.1,30.09,SSW,203,2.9,5.6,62,0.00,,,0.00,WUHU216HW,2013-01-03 14:22:00,
2013-01-03 07:23:00,19.1,8.1,30.09,South,180,2.5,5.6,62,0.00,,,0.00,WUHU216HW,2013-01-03 14:23:00,
2013-01-03 07:24:00,19.1,8.1,30.09,West,270,1.8,5.6,62,0.00,,,0.00,WUHU216HW,2013-01-03 14:24:00,
2013-01-03 07:27:00,19.1,8.1,30.09,SW,225,2.2,5.4,62,0.00,,,0.00,WUHU216HW,2013-01-03 14:27:00,
2013-01-03 07:28:00,19.1,8.1,30.09,South,180,1.1,5.4,62,0.00,,,0.00,WUHU216HW,2013-01-03 14:28:00,
2013-01-03 07:29:00,19.1,8.1,30.09,SW,225,4.3,5.4,62,0.00,,,0.00,WUHU216HW,2013-01-03 14:29:00,
2013-01-03 07:32:00,19.1,8.1,30.09,WSW,248,2.2,5.4,62,0.00,,,0.00,WUHU216HW,2013-01-03 14:32:00,
2013-01-03 07:33:00,19.1,8.1,30.09,SSE,158,0.4,5.4,62,0.00,,,0.00,WUHU216HW,2013-01-03 14:33:00,
2013-01-03 07:34:00,19.1,8.1,30.09,SSW,203,3.6,5.4,62,0.00,,,0.00,WUHU216HW,2013-01-03 14:34:00,
2013-01-03 07:38:00,19.1,8.1,30.09,SSW,203,3.4,4.3,62,0.00,,,0.00,WUHU216HW,2013-01-03 14:38:00,
2013-01-03 07:39:00,19.1,8.5,30.09,SSW,203,2.0,3.6,63,0.00,,,0.00,WUHU216HW,2013-01-03 14:39:00,
2013-01-03 07:43:00,19.1,8.1,30.09,SSW,203,3.4,4.5,62,0.00,,,0.00,WUHU216HW,2013-01-03 14:43:00,
2013-01-03 07:44:00,19.1,8.5,30.09,WSW,248,3.8,4.5,63,0.00,,,0.00,WUHU216HW,2013-01-03 14:44:00,
2013-01-03 07:48:00,19.1,8.5,30.09,SSW,203,3.1,4.5,63,0.00,,,0.00,WUHU216HW,2013-01-03 14:48:00,
2013-01-03 07:49:00,19.3,8.7,30.08,SW,225,4.0,4.5,63,0.00,,,0.00,WUHU216HW,2013-01-03 14:49:00,
2013-01-03 07:53:00,19.3,8.7,30.08,SSW,203,2.9,4.9,63,0.00,,,0.00,WUHU216HW,2013-01-03 14:53:00,
2013-01-03 07:54:00,19.3,8.7,30.08,SSW,203,2.9,4.9,63,0.00,,,0.00,WUHU216HW,2013-01-03 14:54:00,
2013-01-03 07:58:00,19.3,8.7,30.08,SW,225,3.4,4.9,63,0.00,,,0.00,WUHU216HW,2013-01-03 14:58:00,
2013-01-03 07:59:00,19.4,8.7,30.08,West,270,4.0,4.9,63,0.00,,,0.00,WUHU216HW,2013-01-03 14:59:00,
2013-01-03 08:03:00,19.4,8.5,30.08,SSW,203,3.1,6.7,62,0.00,,,0.00,WUHU216HW,2013-01-03 15:03:00,
2013-01-03 08:04:00,19.4,8.5,30.08,West,270,6.3,6.7,62,0.00,,,0.00,WUHU216HW,2013-01-03 15:04:00,
2013-01-03 08:08:00,19.4,8.5,30.08,WSW,248,3.8,6.7,62,0.00,,,0.00,WUHU216HW,2013-01-03 15:08:00,
2013-01-03 08:09:00,19.4,8.5,30.08,SSW,203,5.6,6.7,62,0.00,,,0.00,WUHU216HW,2013-01-03 15:09:00,
2013-01-03 08:13:00,19.4,8.5,30.08,WSW,248,2.7,6.3,62,0.00,,,0.00,WUHU216HW,2013-01-03 15:13:00,
2013-01-03 08:14:00,19.4,8.5,30.09,SW,225,0.4,5.6,62,0.00,,,0.00,WUHU216HW,2013-01-03 15:14:00,
2013-01-03 08:15:00,19.4,8.5,30.08,WSW,248,0.4,5.6,62,0.00,,,0.00,WUHU216HW,2013-01-03 15:15:00,
2013-01-03 08:18:00,19.3,8.3,30.09,WSW,248,1.1,5.6,62,0.00,,,0.00,WUHU216HW,2013-01-03 15:18:00,
2013-01-03 08:19:00,19.4,8.5,30.08,WSW,248,3.6,3.6,62,0.00,,,0.00,WUHU216HW,2013-01-03 15:19:00,
2013-01-03 08:20:00,19.4,8.5,30.09,SSW,203,0.7,3.6,62,0.00,,,0.00,WUHU216HW,2013-01-03 15:20:00,
2013-01-03 08:23:00,19.3,8.3,30.09,SW,225,1.8,3.6,62,0.00,,,0.00,WUHU216HW,2013-01-03 15:23:00,
2013-01-03 08:24:00,19.3,8.3,30.09,SSW,203,2.5,3.6,62,0.00,,,0.00,WUHU216HW,2013-01-03 15:24:00,
2013-01-03 08:25:00,19.4,8.5,30.09,SSW,203,0.7,3.6,62,0.00,,,0.00,WUHU216HW,2013-01-03 15:25:00,
2013-01-03 08:28:00,19.4,8.5,30.09,SSW,203,2.5,4.3,62,0.00,,,0.00,WUHU216HW,2013-01-03 15:28:00,
2013-01-03 08:29:00,19.4,8.5,30.09,WSW,248,1.8,4.3,62,0.00,,,0.00,WUHU216HW,2013-01-03 15:29:00,
2013-01-03 08:30:00,19.4,8.5,30.09,WSW,248,1.3,4.3,62,0.00,,,0.00,WUHU216HW,2013-01-03 15:30:00,
2013-01-03 08:33:00,19.6,8.7,30.09,West,270,2.5,4.3,62,0.00,,,0.00,WUHU216HW,2013-01-03 15:33:00,
2013-01-03 08:34:00,19.6,8.7,30.09,WSW,248,0.9,4.3,62,0.00,,,0.00,WUHU216HW,2013-01-03 15:34:00,
2013-01-03 08:36:00,19.8,8.8,30.09,SW,225,0.7,4.3,62,0.00,,,0.00,WUHU216HW,2013-01-03 15:36:00,
2013-01-03 08:38:00,19.8,8.8,30.09,SSW,203,3.1,3.8,62,0.00,,,0.00,WUHU216HW,2013-01-03 15:38:00,
2013-01-03 08:39:00,19.8,8.8,30.09,WNW,293,3.4,3.8,62,0.00,,,0.00,WUHU216HW,2013-01-03 15:39:00,
2013-01-03 08:41:00,20.0,9.0,30.09,WSW,248,2.5,3.8,62,0.00,,,0.00,WUHU216HW,2013-01-03 15:41:00,
2013-01-03 08:43:00,20.0,9.0,30.09,SSW,203,3.1,3.8,62,0.00,,,0.00,WUHU216HW,2013-01-03 15:43:00,
2013-01-03 08:44:00,20.0,9.0,30.09,SW,225,1.1,3.8,62,0.00,,,0.00,WUHU216HW,2013-01-03 15:44:00,
2013-01-03 08:45:00,20.0,9.0,30.09,WSW,248,3.1,3.4,62,0.00,,,0.00,WUHU216HW,2013-01-03 15:45:00,
2013-01-03 08:46:00,20.0,9.0,30.09,WSW,248,3.4,3.4,62,0.00,,,0.00,WUHU216HW,2013-01-03 15:46:00,
2013-01-03 08:49:00,20.2,8.8,30.09,West,270,1.8,3.4,61,0.00,,,0.00,WUHU216HW,2013-01-03 15:49:00,
2013-01-03 08:50:00,20.2,8.8,30.09,WSW,248,2.5,4.0,61,0.00,,,0.00,WUHU216HW,2013-01-03 15:50:00,
2013-01-03 08:51:00,20.2,8.8,30.09,SW,225,5.4,5.4,61,0.00,,,0.00,WUHU216HW,2013-01-03 15:51:00,
2013-01-03 08:54:00,20.2,8.8,30.09,SSW,203,2.0,5.6,61,0.00,,,0.00,WUHU216HW,2013-01-03 15:54:00,
2013-01-03 08:55:00,20.2,8.8,30.09,SW,225,2.7,6.9,61,0.00,,,0.00,WUHU216HW,2013-01-03 15:55:00,
2013-01-03 08:56:00,20.3,9.0,30.09,West,270,3.4,6.9,61,0.00,,,0.00,WUHU216HW,2013-01-03 15:56:00,
2013-01-03 08:59:00,20.3,9.0,30.09,SW,225,4.5,6.9,61,0.00,,,0.00,WUHU216HW,2013-01-03 15:59:00,
2013-01-03 09:00:00,20.3,9.0,30.09,SW,225,4.5,6.9,61,0.00,,,0.00,WUHU216HW,2013-01-03 16:00:00,
2013-01-03 09:01:00,20.5,9.2,30.09,West,270,4.5,6.9,61,0.00,,,0.00,WUHU216HW,2013-01-03 16:01:00,
2013-01-03 09:04:00,20.5,9.2,30.09,SW,225,3.4,4.7,61,0.00,,,0.00,WUHU216HW,2013-01-03 16:04:00,
2013-01-03 09:05:00,20.5,9.2,30.09,SW,225,2.9,4.7,61,0.00,,,0.00,WUHU216HW,2013-01-03 16:05:00,
2013-01-03 09:07:00,20.5,9.2,30.09,WSW,248,2.5,4.7,61,0.00,,,0.00,WUHU216HW,2013-01-03 16:07:00,
2013-01-03 09:10:00,20.9,9.6,30.09,WNW,293,4.0,5.1,61,0.00,,,0.00,WUHU216HW,2013-01-03 16:10:00,
2013-01-03 09:12:00,21.1,9.7,30.09,SW,225,5.6,5.6,61,0.00,,,0.00,WUHU216HW,2013-01-03 16:12:00,
2013-01-03 09:15:00,21.2,9.5,30.09,West,270,4.7,5.8,60,0.00,,,0.00,WUHU216HW,2013-01-03 16:15:00,
2013-01-03 09:17:00,21.2,9.5,30.09,WSW,248,3.4,5.8,60,0.00,,,0.00,WUHU216HW,2013-01-03 16:17:00,
2013-01-03 09:20:00,21.2,9.5,30.08,WNW,293,4.0,5.8,60,0.00,,,0.00,WUHU216HW,2013-01-03 16:20:00,
2013-01-03 09:22:00,21.2,9.5,30.08,West,270,2.9,7.4,60,0.00,,,0.00,WUHU216HW,2013-01-03 16:22:00,
2013-01-03 09:25:00,21.4,9.7,30.08,West,270,5.8,7.4,60,0.00,,,0.00,WUHU216HW,2013-01-03 16:25:00,
2013-01-03 09:26:00,21.4,9.7,30.08,West,270,5.8,7.4,60,0.00,,,0.00,WUHU216HW,2013-01-03 16:26:00,
2013-01-03 09:27:00,21.6,9.9,30.08,West,270,4.9,7.4,60,0.00,,,0.00,WUHU216HW,2013-01-03 16:27:00,
2013-01-03 09:30:00,21.8,9.6,30.08,WSW,248,3.8,7.4,59,0.00,,,0.00,WUHU216HW,2013-01-03 16:30:00,
2013-01-03 09:31:00,21.8,9.6,30.08,WSW,248,3.8,7.4,59,0.00,,,0.00,WUHU216HW,2013-01-03 16:31:00,
2013-01-03 09:32:00,21.6,9.5,30.08,WNW,293,3.4,7.2,59,0.00,,,0.00,WUHU216HW,2013-01-03 16:32:00,
2013-01-03 09:36:00,21.8,9.6,30.08,NW,315,6.7,7.2,59,0.00,,,0.00,WUHU216HW,2013-01-03 16:36:00,
2013-01-03 09:37:00,22.0,9.8,30.08,SW,225,4.7,7.2,59,0.00,,,0.00,WUHU216HW,2013-01-03 16:37:00,
2013-01-03 09:41:00,22.0,9.4,30.08,West,270,8.1,8.1,58,0.00,,,0.00,WUHU216HW,2013-01-03 16:41:00,
2013-01-03 09:42:00,22.0,9.4,30.08,West,270,5.4,8.1,58,0.00,,,0.00,WUHU216HW,2013-01-03 16:42:00,
2013-01-03 09:46:00,22.0,9.4,30.08,West,270,7.4,8.1,58,0.00,,,0.00,WUHU216HW,2013-01-03 16:46:00,
2013-01-03 09:47:00,22.1,9.5,30.08,West,270,8.9,8.9,58,0.00,,,0.00,WUHU216HW,2013-01-03 16:47:00,
2013-01-03 09:51:00,22.3,9.7,30.08,West,270,6.5,8.9,58,0.00,,,0.00,WUHU216HW,2013-01-03 16:51:00,
2013-01-03 09:52:00,22.3,9.7,30.08,WNW,293,4.9,8.9,58,0.00,,,0.00,WUHU216HW,2013-01-03 16:52:00,
2013-01-03 09:53:00,22.3,9.7,30.08,WNW,293,4.9,8.9,58,0.00,,,0.00,WUHU216HW,2013-01-03 16:53:00,
2013-01-03 09:56:00,22.5,9.9,30.07,WNW,293,6.3,8.9,58,0.00,,,0.00,WUHU216HW,2013-01-03 16:56:00,
2013-01-03 09:58:00,22.7,10.1,30.07,WNW,293,5.8,8.5,58,0.00,,,0.00,WUHU216HW,2013-01-03 16:58:00,
2013-01-03 10:01:00,22.7,9.6,30.07,SW,225,7.8,8.7,57,0.00,,,0.00,WUHU216HW,2013-01-03 17:01:00,
2013-01-03 10:03:00,22.9,9.8,30.07,NNW,338,7.6,8.7,57,0.00,,,0.00,WUHU216HW,2013-01-03 17:03:00,
2013-01-03 10:06:00,23.0,10.4,30.07,NW,315,4.7,8.7,58,0.00,,,0.00,WUHU216HW,2013-01-03 17:06:00,
2013-01-03 10:08:00,23.4,10.7,30.07,WNW,293,7.8,8.7,58,0.00,,,0.00,WUHU216HW,2013-01-03 17:08:00,
2013-01-03 10:12:00,23.4,10.7,30.07,WNW,293,7.6,7.8,58,0.00,,,0.00,WUHU216HW,2013-01-03 17:12:00,
2013-01-03 10:13:00,23.4,10.7,30.08,NW,315,4.9,7.8,58,0.00,,,0.00,WUHU216HW,2013-01-03 17:13:00,
2013-01-03 10:14:00,23.4,10.7,30.08,NW,315,4.9,7.8,58,0.00,,,0.00,WUHU216HW,2013-01-03 17:14:00,
2013-01-03 10:17:00,23.8,11.1,30.08,North,0,11.4,11.4,58,0.00,,,0.00,WUHU216HW,2013-01-03 17:17:00,
2013-01-03 10:18:00,23.9,10.9,30.08,NW,315,3.6,11.4,57,0.00,,,0.00,WUHU216HW,2013-01-03 17:18:00,
2013-01-03 10:19:00,23.9,10.9,30.08,NW,315,3.6,11.4,57,0.00,,,0.00,WUHU216HW,2013-01-03 17:19:00,
2013-01-03 10:22:00,24.3,11.2,30.08,WNW,293,4.3,11.4,57,0.00,,,0.00,WUHU216HW,2013-01-03 17:22:00,
2013-01-03 10:23:00,24.3,11.2,30.08,NW,315,4.7,11.4,57,0.00,,,0.00,WUHU216HW,2013-01-03 17:23:00,
2013-01-03 10:24:00,24.3,11.2,30.08,NW,315,4.7,11.4,57,0.00,,,0.00,WUHU216HW,2013-01-03 17:24:00,
2013-01-03 10:27:00,24.7,11.5,30.08,West,270,4.7,4.7,57,0.00,,,0.00,WUHU216HW,2013-01-03 17:27:00,
2013-01-03 10:28:00,24.8,11.7,30.08,WNW,293,7.2,7.2,57,0.00,,,0.00,WUHU216HW,2013-01-03 17:28:00,
2013-01-03 10:29:00,24.8,11.7,30.08,WNW,293,7.2,7.2,57,0.00,,,0.00,WUHU216HW,2013-01-03 17:29:00,
2013-01-03 10:32:00,25.2,11.3,30.07,West,270,6.0,7.2,55,0.00,,,0.00,WUHU216HW,2013-01-03 17:32:00,
2013-01-03 10:33:00,25.2,11.3,30.08,WNW,293,7.8,7.8,55,0.00,,,0.00,WUHU216HW,2013-01-03 17:33:00,
2013-01-03 10:34:00,25.2,11.3,30.08,WNW,293,7.8,7.8,55,0.00,,,0.00,WUHU216HW,2013-01-03 17:34:00,
2013-01-03 10:37:00,25.4,11.8,30.08,NW,315,1.8,7.8,56,0.00,,,0.00,WUHU216HW,2013-01-03 17:37:00,
2013-01-03 10:38:00,25.4,11.3,30.07,West,270,2.5,7.8,55,0.00,,,0.00,WUHU216HW,2013-01-03 17:38:00,
2013-01-03 10:39:00,25.4,11.3,30.07,West,270,2.5,7.8,55,0.00,,,0.00,WUHU216HW,2013-01-03 17:39:00,
2013-01-03 10:42:00,25.6,11.5,30.07,NW,315,2.9,7.8,55,0.00,,,0.00,WUHU216HW,2013-01-03 17:42:00,
2013-01-03 10:43:00,25.6,11.5,30.07,West,270,5.4,6.3,55,0.00,,,0.00,WUHU216HW,2013-01-03 17:43:00,
2013-01-03 10:44:00,25.6,11.5,30.07,West,270,5.4,6.3,55,0.00,,,0.00,WUHU216HW,2013-01-03 17:44:00,
2013-01-03 10:47:00,25.9,11.9,30.07,WNW,293,2.9,5.8,55,0.00,,,0.00,WUHU216HW,2013-01-03 17:47:00,
2013-01-03 10:48:00,26.1,12.1,30.07,West,270,5.1,5.8,55,0.00,,,0.00,WUHU216HW,2013-01-03 17:48:00,
2013-01-03 10:49:00,26.1,12.1,30.07,West,270,5.1,5.8,55,0.00,,,0.00,WUHU216HW,2013-01-03 17:49:00,
2013-01-03 10:52:00,26.3,11.8,30.06,West,270,4.0,7.6,54,0.00,,,0.00,WUHU216HW,2013-01-03 17:52:00,
2013-01-03 10:53:00,26.3,11.8,30.06,WSW,248,4.0,8.9,54,0.00,,,0.00,WUHU216HW,2013-01-03 17:53:00,
2013-01-03 10:54:00,26.5,12.0,30.06,WSW,248,4.7,8.9,54,0.00,,,0.00,WUHU216HW,2013-01-03 17:54:00,
2013-01-03 10:57:00,26.6,12.1,30.06,North,0,3.4,8.9,54,0.00,,,0.00,WUHU216HW,2013-01-03 17:57:00,
2013-01-03 10:58:00,26.6,12.1,30.06,NW,315,9.6,9.6,54,0.00,,,0.00,WUHU216HW,2013-01-03 17:58:00,
2013-01-03 10:59:00,26.6,12.1,30.06,WSW,248,5.6,9.6,54,0.00,,,0.00,WUHU216HW,2013-01-03 17:59:00,
2013-01-03 11:02:00,27.0,12.1,30.06,WNW,293,5.4,9.6,53,0.00,,,0.00,WUHU216HW,2013-01-03 18:02:00,
2013-01-03 11:03:00,27.0,12.1,30.06,WSW,248,7.4,9.6,53,0.00,,,0.00,WUHU216HW,2013-01-03 18:03:00,
2013-01-03 11:04:00,27.0,12.1,30.06,NW,315,6.7,9.6,53,0.00,,,0.00,WUHU216HW,2013-01-03 18:04:00,
2013-01-03 11:07:00,27.2,12.3,30.06,SSW,203,4.7,8.7,53,0.00,,,0.00,WUHU216HW,2013-01-03 18:07:00,
2013-01-03 11:08:00,27.2,12.6,30.06,West,270,5.6,8.7,54,0.00,,,0.00,WUHU216HW,2013-01-03 18:08:00,
2013-01-03 11:09:00,27.2,12.6,30.06,NW,315,5.4,8.7,54,0.00,,,0.00,WUHU216HW,2013-01-03 18:09:00,
2013-01-03 11:12:00,27.5,12.6,30.06,WNW,293,4.7,7.4,53,0.00,,,0.00,WUHU216HW,2013-01-03 18:12:00,
2013-01-03 11:13:00,27.5,12.6,30.06,WSW,248,5.6,6.7,53,0.00,,,0.00,WUHU216HW,2013-01-03 18:13:00,
2013-01-03 11:14:00,27.7,12.8,30.06,SW,225,4.9,6.3,53,0.00,,,0.00,WUHU216HW,2013-01-03 18:14:00,
2013-01-03 11:18:00,27.7,12.8,30.06,WNW,293,6.0,8.5,53,0.00,,,0.00,WUHU216HW,2013-01-03 18:18:00,
2013-01-03 11:19:00,27.9,13.0,30.06,West,270,2.7,8.5,53,0.00,,,0.00,WUHU216HW,2013-01-03 18:19:00,
2013-01-03 11:23:00,28.3,13.3,30.06,WSW,248,3.4,8.5,53,0.00,,,0.00,WUHU216HW,2013-01-03 18:23:00,
2013-01-03 11:24:00,28.4,13.5,30.06,WNW,293,2.7,8.5,53,0.00,,,0.00,WUHU216HW,2013-01-03 18:24:00,
2013-01-03 11:28:00,28.6,13.7,30.06,West,270,2.7,7.4,53,0.00,,,0.00,WUHU216HW,2013-01-03 18:28:00,
2013-01-03 11:29:00,28.6,13.7,30.06,West,270,5.6,7.4,53,0.00,,,0.00,WUHU216HW,2013-01-03 18:29:00,
2013-01-03 11:33:00,29.2,14.1,30.06,West,270,4.0,5.6,53,0.00,,,0.00,WUHU216HW,2013-01-03 18:33:00,
2013-01-03 11:34:00,29.2,14.1,30.06,West,270,5.1,5.6,53,0.00,,,0.00,WUHU216HW,2013-01-03 18:34:00,
2013-01-03 11:38:00,29.5,14.5,30.06,WNW,293,5.8,5.8,53,0.00,,,0.00,WUHU216HW,2013-01-03 18:38:00,
2013-01-03 11:39:00,29.7,14.2,30.06,WNW,293,4.7,5.8,52,0.00,,,0.00,WUHU216HW,2013-01-03 18:39:00,
2013-01-03 11:40:00,29.9,14.4,30.06,WSW,248,6.5,6.5,52,0.00,,,0.00,WUHU216HW,2013-01-03 18:40:00,
2013-01-03 11:43:00,30.1,14.1,30.06,WSW,248,4.5,8.9,51,0.00,,,0.00,WUHU216HW,2013-01-03 18:43:00,
2013-01-03 11:44:00,30.1,14.1,30.06,WSW,248,4.5,8.9,51,0.00,,,0.00,WUHU216HW,2013-01-03 18:44:00,
2013-01-03 11:45:00,30.2,14.3,30.05,WSW,248,6.3,8.9,51,0.00,,,0.00,WUHU216HW,2013-01-03 18:45:00,
2013-01-03 11:48:00,30.4,14.4,30.05,WSW,248,4.0,8.9,51,0.00,,,0.00,WUHU216HW,2013-01-03 18:48:00,
2013-01-03 11:49:00,30.4,14.4,30.05,WSW,248,4.0,8.9,51,0.00,,,0.00,WUHU216HW,2013-01-03 18:49:00,
2013-01-03 11:50:00,30.4,14.4,30.05,West,270,6.5,8.9,51,0.00,,,0.00,WUHU216HW,2013-01-03 18:50:00,
2013-01-03 11:53:00,30.6,14.6,30.05,NW,315,5.4,6.5,51,0.00,,,0.00,WUHU216HW,2013-01-03 18:53:00,
2013-01-03 11:54:00,30.6,14.6,30.05,NW,315,5.4,6.5,51,0.00,,,0.00,WUHU216HW,2013-01-03 18:54:00,
2013-01-03 11:55:00,30.6,14.2,30.05,WNW,293,5.4,6.5,50,0.00,,,0.00,WUHU216HW,2013-01-03 18:55:00,
2013-01-03 11:59:00,31.0,14.1,30.05,SW,225,9.8,11.4,49,0.00,,,0.00,WUHU216HW,2013-01-03 18:59:00,
2013-01-03 12:00:00,31.0,14.1,30.05,WNW,293,6.0,11.4,49,0.00,,,0.00,WUHU216HW,2013-01-03 19:00:00,
2013-01-03 12:01:00,31.0,14.1,30.05,WNW,293,6.0,11.4,49,0.00,,,0.00,WUHU216HW,2013-01-03 19:01:00,
2013-01-03 12:04:00,31.1,13.7,30.04,West,270,9.6,11.4,48,0.00,,,0.00,WUHU216HW,2013-01-03 19:04:00,
2013-01-03 12:06:00,31.1,13.7,30.04,West,270,6.3,11.4,48,0.00,,,0.00,WUHU216HW,2013-01-03 19:06:00,
2013-01-03 12:09:00,31.1,14.1,30.04,West,270,8.5,9.8,49,0.00,,,0.00,WUHU216HW,2013-01-03 19:09:00,
2013-01-03 12:11:00,31.3,14.3,30.04,WNW,293,4.9,9.6,49,0.00,,,0.00,WUHU216HW,2013-01-03 19:11:00,
2013-01-03 12:14:00,31.5,14.5,30.04,West,270,6.3,11.4,49,0.00,,,0.00,WUHU216HW,2013-01-03 19:14:00,
2013-01-03 12:16:00,31.7,14.1,30.04,WNW,293,9.2,11.4,48,0.00,,,0.00,WUHU216HW,2013-01-03 19:16:00,
2013-01-03 12:51:00,32.9,14.8,30.02,West,270,2.5,7.6,47,0.00,,,0.00,WUHU216HW,2013-01-03 19:51:00,
2013-01-03 12:52:00,32.9,14.8,30.02,West,270,2.5,7.6,47,0.00,,,0.00,WUHU216HW,2013-01-03 19:52:00,
2013-01-03 12:55:00,33.3,15.1,30.02,SW,225,5.4,8.5,47,0.00,,,0.00,WUHU216HW,2013-01-03 19:55:00,
2013-01-03 12:56:00,33.3,15.1,30.02,SW,225,5.4,8.5,47,0.00,,,0.00,WUHU216HW,2013-01-03 19:56:00,
2013-01-03 12:57:00,33.5,14.8,30.02,West,270,7.6,8.5,46,0.00,,,0.00,WUHU216HW,2013-01-03 19:57:00,
2013-01-03 12:58:00,33.5,14.8,30.02,West,270,7.6,8.5,46,0.00,,,0.00,WUHU216HW,2013-01-03 19:58:00,
2013-01-03 13:00:00,33.7,15.0,30.02,West,270,6.3,8.5,46,0.00,,,0.00,WUHU216HW,2013-01-03 20:00:00,
2013-01-03 13:01:00,33.8,15.1,30.02,NW,315,2.0,8.5,46,0.00,,,0.00,WUHU216HW,2013-01-03 20:01:00,
2013-01-03 13:02:00,33.8,15.1,30.02,WSW,248,5.4,8.5,46,0.00,,,0.00,WUHU216HW,2013-01-03 20:02:00,
2013-01-03 13:03:00,33.8,15.1,30.02,WSW,248,7.8,7.8,46,0.00,,,0.00,WUHU216HW,2013-01-03 20:03:00,
2013-01-03 13:06:00,33.8,15.1,30.02,SW,225,4.5,10.1,46,0.00,,,0.00,WUHU216HW,2013-01-03 20:06:00,
2013-01-03 13:07:00,33.8,15.1,30.02,SW,225,4.5,10.1,46,0.00,,,0.00,WUHU216HW,2013-01-03 20:07:00,
2013-01-03 13:08:00,34.0,14.8,30.02,WNW,293,8.9,10.1,45,0.00,,,0.00,WUHU216HW,2013-01-03 20:08:00,
2013-01-03 13:11:00,34.0,14.8,30.02,West,270,5.8,10.1,45,0.00,,,0.00,WUHU216HW,2013-01-03 20:11:00,
2013-01-03 13:12:00,34.0,14.8,30.02,West,270,5.8,10.1,45,0.00,,,0.00,WUHU216HW,2013-01-03 20:12:00,
2013-01-03 13:14:00,34.0,14.8,30.02,WSW,248,4.5,10.1,45,0.00,,,0.00,WUHU216HW,2013-01-03 20:14:00,
2013-01-03 13:16:00,34.0,15.3,30.02,West,270,4.7,9.4,46,0.00,,,0.00,WUHU216HW,2013-01-03 20:16:00,
2013-01-03 13:17:00,34.2,15.0,30.02,WNW,293,4.3,9.4,45,0.00,,,0.00,WUHU216HW,2013-01-03 20:17:00,
2013-01-03 13:19:00,34.2,15.4,30.02,West,270,2.5,9.4,46,0.00,,,0.00,WUHU216HW,2013-01-03 20:19:00,
2013-01-03 13:22:00,34.2,15.4,30.02,WNW,293,3.8,5.6,46,0.00,,,0.00,WUHU216HW,2013-01-03 20:22:00,
2013-01-03 13:24:00,34.2,15.4,30.01,West,270,5.4,5.6,46,0.00,,,0.00,WUHU216HW,2013-01-03 20:24:00,
2013-01-03 13:27:00,34.4,15.6,30.01,West,270,3.1,5.4,46,0.00,,,0.00,WUHU216HW,2013-01-03 20:27:00,
2013-01-03 13:28:00,34.4,15.6,30.01,West,270,3.1,5.4,46,0.00,,,0.00,WUHU216HW,2013-01-03 20:28:00,
2013-01-03 13:29:00,34.4,15.1,30.01,West,270,2.0,5.4,45,0.00,,,0.00,WUHU216HW,2013-01-03 20:29:00,
2013-01-03 13:32:00,34.6,15.3,30.01,West,270,2.7,6.0,45,0.00,,,0.00,WUHU216HW,2013-01-03 20:32:00,
2013-01-03 13:33:00,34.6,15.3,30.01,West,270,2.7,6.0,45,0.00,,,0.00,WUHU216HW,2013-01-03 20:33:00,
2013-01-03 13:34:00,34.6,15.8,30.01,WSW,248,3.1,6.0,46,0.00,,,0.00,WUHU216HW,2013-01-03 20:34:00,
2013-01-03 13:37:00,34.6,15.3,30.01,WSW,248,5.4,6.0,45,0.00,,,0.00,WUHU216HW,2013-01-03 20:37:00,
2013-01-03 13:38:00,34.6,15.3,30.01,WSW,248,5.4,6.0,45,0.00,,,0.00,WUHU216HW,2013-01-03 20:38:00,
2013-01-03 13:39:00,34.7,15.4,30.01,WNW,293,5.4,9.6,45,0.00,,,0.00,WUHU216HW,2013-01-03 20:39:00,
2013-01-03 13:42:00,34.7,15.4,30.01,West,270,2.5,9.6,45,0.00,,,0.00,WUHU216HW,2013-01-03 20:42:00,
2013-01-03 13:43:00,34.7,15.9,30.01,WNW,293,1.1,9.6,46,0.00,,,0.00,WUHU216HW,2013-01-03 20:43:00,
2013-01-03 13:44:00,34.9,16.1,30.01,West,270,0.9,9.6,46,0.00,,,0.00,WUHU216HW,2013-01-03 20:44:00,
2013-01-03 13:47:00,34.9,15.6,30.01,West,270,2.5,9.6,45,0.00,,,0.00,WUHU216HW,2013-01-03 20:47:00,
2013-01-03 13:48:00,34.9,15.6,30.01,West,270,2.5,9.6,45,0.00,,,0.00,WUHU216HW,2013-01-03 20:48:00,
2013-01-03 13:50:00,34.9,15.6,30.01,NW,315,4.0,5.6,45,0.00,,,0.00,WUHU216HW,2013-01-03 20:50:00,
2013-01-03 13:52:00,34.9,15.6,30.01,SW,225,4.7,4.7,45,0.00,,,0.00,WUHU216HW,2013-01-03 20:52:00,
2013-01-03 13:53:00,34.9,15.6,30.01,SW,225,4.7,4.7,45,0.00,,,0.00,WUHU216HW,2013-01-03 20:53:00,
2013-01-03 13:55:00,34.9,15.6,30.01,WNW,293,1.8,5.1,45,0.00,,,0.00,WUHU216HW,2013-01-03 20:55:00,
2013-01-03 13:57:00,34.9,15.6,30.01,West,270,3.6,5.1,45,0.00,,,0.00,WUHU216HW,2013-01-03 20:57:00,
2013-01-03 13:58:00,34.9,15.6,30.01,West,270,3.6,5.1,45,0.00,,,0.00,WUHU216HW,2013-01-03 20:58:00,
2013-01-03 13:59:00,35.1,15.8,30.01,SW,225,5.4,5.4,45,0.00,,,0.00,WUHU216HW,2013-01-03 20:59:00,
2013-01-03 14:00:00,35.3,15.9,30.01,WSW,248,10.5,10.5,45,0.00,,,0.00,WUHU216HW,2013-01-03 21:00:00,
2013-01-03 14:03:00,35.1,15.8,30.01,West,270,2.5,10.5,45,0.00,,,0.00,WUHU216HW,2013-01-03 21:03:00,
2013-01-03 14:04:00,35.3,15.9,30.01,NW,315,6.3,10.5,45,0.00,,,0.00,WUHU216HW,2013-01-03 21:04:00,
2013-01-03 14:05:00,35.3,15.9,30.01,NW,315,6.3,10.5,45,0.00,,,0.00,WUHU216HW,2013-01-03 21:05:00,
2013-01-03 14:08:00,35.5,16.1,30.01,WNW,293,8.7,10.5,45,0.00,,,0.00,WUHU216HW,2013-01-03 21:08:00,
2013-01-03 14:09:00,35.5,16.1,30.01,West,270,5.4,10.5,45,0.00,,,0.00,WUHU216HW,2013-01-03 21:09:00,
2013-01-03 14:10:00,35.5,15.6,30.01,WSW,248,5.1,10.5,44,0.00,,,0.00,WUHU216HW,2013-01-03 21:10:00,
2013-01-03 14:13:00,35.5,15.6,30.01,WSW,248,7.6,8.7,44,0.00,,,0.00,WUHU216HW,2013-01-03 21:13:00,
2013-01-03 14:14:00,35.3,15.4,30.01,West,270,5.1,8.7,44,0.00,,,0.00,WUHU216HW,2013-01-03 21:14:00,
2013-01-03 14:15:00,35.5,15.6,30.01,WSW,248,6.3,8.7,44,0.00,,,0.00,WUHU216HW,2013-01-03 21:15:00,
2013-01-03 14:18:00,35.5,15.6,30.01,West,270,4.7,8.5,44,0.00,,,0.00,WUHU216HW,2013-01-03 21:18:00,
2013-01-03 14:19:00,35.5,15.6,30.01,West,270,4.7,8.5,44,0.00,,,0.00,WUHU216HW,2013-01-03 21:19:00,
2013-01-03 14:20:00,35.3,15.4,30.01,WSW,248,4.5,8.5,44,0.00,,,0.00,WUHU216HW,2013-01-03 21:20:00,
2013-01-03 14:23:00,35.3,15.4,30.01,WSW,248,5.8,8.5,44,0.00,,,0.00,WUHU216HW,2013-01-03 21:23:00,
2013-01-03 14:24:00,35.3,15.4,30.01,WSW,248,5.8,8.5,44,0.00,,,0.00,WUHU216HW,2013-01-03 21:24:00,
2013-01-03 14:25:00,35.3,15.4,30.01,West,270,3.6,8.5,44,0.00,,,0.00,WUHU216HW,2013-01-03 21:25:00,
2013-01-03 14:28:00,35.1,15.3,30.01,West,270,5.6,7.8,44,0.00,,,0.00,WUHU216HW,2013-01-03 21:28:00,
2013-01-03 14:29:00,35.1,15.3,30.01,West,270,5.6,7.8,44,0.00,,,0.00,WUHU216HW,2013-01-03 21:29:00,
2013-01-03 14:30:00,35.1,15.3,30.01,WSW,248,5.8,7.8,44,0.00,,,0.00,WUHU216HW,2013-01-03 21:30:00,
2013-01-03 14:33:00,35.1,15.3,30.01,West,270,6.9,7.8,44,0.00,,,0.00,WUHU216HW,2013-01-03 21:33:00,
2013-01-03 14:34:00,35.1,15.3,30.01,WSW,248,10.3,10.3,44,0.00,,,0.00,WUHU216HW,2013-01-03 21:34:00,
2013-01-03 14:36:00,35.1,15.3,30.01,WSW,248,6.3,10.3,44,0.00,,,0.00,WUHU216HW,2013-01-03 21:36:00,
2013-01-03 14:38:00,34.9,15.1,30.01,WNW,293,4.9,10.3,44,0.00,,,0.00,WUHU216HW,2013-01-03 21:38:00,
2013-01-03 14:39:00,34.9,15.1,30.01,WSW,248,7.6,10.3,44,0.00,,,0.00,WUHU216HW,2013-01-03 21:39:00,
2013-01-03 14:41:00,34.9,15.1,30.01,West,270,4.0,10.3,44,0.00,,,0.00,WUHU216HW,2013-01-03 21:41:00,
2013-01-03 14:44:00,34.9,15.1,30.01,West,270,4.3,10.3,44,0.00,,,0.00,WUHU216HW,2013-01-03 21:44:00,
2013-01-03 14:46:00,34.9,15.1,30.01,West,270,2.0,7.6,44,0.00,,,0.00,WUHU216HW,2013-01-03 21:46:00,
2013-01-03 14:49:00,34.9,15.1,30.01,WSW,248,8.7,9.4,44,0.00,,,0.00,WUHU216HW,2013-01-03 21:49:00,
2013-01-03 14:50:00,34.9,15.1,30.01,WSW,248,8.7,9.4,44,0.00,,,0.00,WUHU216HW,2013-01-03 21:50:00,
2013-01-03 14:51:00,34.9,15.1,30.01,WSW,248,7.2,9.4,44,0.00,,,0.00,WUHU216HW,2013-01-03 21:51:00,
2013-01-03 14:54:00,34.9,15.1,30.01,SSW,203,11.4,11.4,44,0.00,,,0.00,WUHU216HW,2013-01-03 21:54:00,
2013-01-03 14:55:00,34.9,15.1,30.01,SSW,203,11.4,11.4,44,0.00,,,0.00,WUHU216HW,2013-01-03 21:55:00,
2013-01-03 14:56:00,34.9,15.1,30.01,West,270,4.3,11.4,44,0.00,,,0.00,WUHU216HW,2013-01-03 21:56:00,
2013-01-03 14:57:00,35.1,15.8,30.01,West,270,3.8,11.4,45,0.00,,,0.00,WUHU216HW,2013-01-03 21:57:00,
2013-01-03 15:00:00,34.9,15.1,30.01,West,270,4.7,11.4,44,0.00,,,0.00,WUHU216HW,2013-01-03 22:00:00,
2013-01-03 15:01:00,34.9,15.1,30.01,West,270,3.4,11.4,44,0.00,,,0.00,WUHU216HW,2013-01-03 22:01:00,
2013-01-03 15:02:00,34.9,15.1,30.01,West,270,3.4,11.4,44,0.00,,,0.00,WUHU216HW,2013-01-03 22:02:00,
2013-01-03 15:05:00,34.9,15.6,30.02,West,270,5.1,8.1,45,0.00,,,0.00,WUHU216HW,2013-01-03 22:05:00,
2013-01-03 15:06:00,34.9,15.6,30.02,WSW,248,3.4,8.1,45,0.00,,,0.00,WUHU216HW,2013-01-03 22:06:00,
2013-01-03 15:07:00,34.9,15.6,30.02,SW,225,2.7,8.1,45,0.00,,,0.00,WUHU216HW,2013-01-03 22:07:00,
2013-01-03 15:10:00,34.9,15.6,30.02,WSW,248,1.8,7.8,45,0.00,,,0.00,WUHU216HW,2013-01-03 22:10:00,
2013-01-03 15:11:00,34.9,15.6,30.02,NNW,338,6.3,7.8,45,0.00,,,0.00,WUHU216HW,2013-01-03 22:11:00,
2013-01-03 15:12:00,34.9,15.6,30.02,WNW,293,4.0,7.8,45,0.00,,,0.00,WUHU216HW,2013-01-03 22:12:00,
2013-01-03 15:15:00,34.9,15.6,30.02,West,270,3.1,6.3,45,0.00,,,0.00,WUHU216HW,2013-01-03 22:15:00,
2013-01-03 15:16:00,34.9,15.6,30.02,West,270,3.1,6.3,45,0.00,,,0.00,WUHU216HW,2013-01-03 22:16:00,
2013-01-03 15:17:00,34.9,15.6,30.02,West,270,2.5,6.3,45,0.00,,,0.00,WUHU216HW,2013-01-03 22:17:00,
2013-01-03 15:20:00,34.9,15.6,30.02,West,270,5.8,6.3,45,0.00,,,0.00,WUHU216HW,2013-01-03 22:20:00,
2013-01-03 15:21:00,34.9,15.6,30.02,NNW,338,2.0,5.8,45,0.00,,,0.00,WUHU216HW,2013-01-03 22:21:00,
2013-01-03 15:22:00,34.9,15.6,30.02,WSW,248,6.9,6.9,45,0.00,,,0.00,WUHU216HW,2013-01-03 22:22:00,
2013-01-03 15:25:00,34.9,15.1,30.02,NNW,338,1.8,6.9,44,0.00,,,0.00,WUHU216HW,2013-01-03 22:25:00,
2013-01-03 15:27:00,34.9,15.1,30.02,SW,225,2.5,6.9,44,0.00,,,0.00,WUHU216HW,2013-01-03 22:27:00,
2013-01-03 15:30:00,34.9,15.1,30.02,West,270,2.7,6.9,44,0.00,,,0.00,WUHU216HW,2013-01-03 22:30:00,
2013-01-03 15:32:00,35.1,15.3,30.02,West,270,3.4,6.9,44,0.00,,,0.00,WUHU216HW,2013-01-03 22:32:00,
2013-01-03 15:35:00,34.9,15.1,30.03,NW,315,2.7,6.0,44,0.00,,,0.00,WUHU216HW,2013-01-03 22:35:00,
2013-01-03 15:37:00,34.9,15.1,30.02,WNW,293,1.8,6.0,44,0.00,,,0.00,WUHU216HW,2013-01-03 22:37:00,
2013-01-03 15:40:00,34.9,15.1,30.02,NNW,338,5.4,7.8,44,0.00,,,0.00,WUHU216HW,2013-01-03 22:40:00,
2013-01-03 15:42:00,34.9,15.1,30.02,NNW,338,4.0,7.8,44,0.00,,,0.00,WUHU216HW,2013-01-03 22:42:00,
2013-01-03 15:45:00,34.6,14.8,30.02,NW,315,1.8,7.8,44,0.00,,,0.00,WUHU216HW,2013-01-03 22:45:00,
2013-01-03 15:47:00,34.6,14.8,30.02,NNW,338,7.4,7.8,44,0.00,,,0.00,WUHU216HW,2013-01-03 22:47:00,
2013-01-03 15:48:00,34.6,14.8,30.02,WNW,293,4.7,7.8,44,0.00,,,0.00,WUHU216HW,2013-01-03 22:48:00,
2013-01-03 15:50:00,34.4,14.0,30.03,WNW,293,8.5,8.5,43,0.00,,,0.00,WUHU216HW,2013-01-03 22:50:00,
2013-01-03 15:52:00,34.4,14.6,30.02,NW,315,4.9,8.5,44,0.00,,,0.00,WUHU216HW,2013-01-03 22:52:00,
2013-01-03 15:53:00,34.2,14.4,30.02,West,270,5.8,8.5,44,0.00,,,0.00,WUHU216HW,2013-01-03 22:53:00,
2013-01-03 15:55:00,34.2,14.4,30.02,West,270,7.6,8.5,44,0.00,,,0.00,WUHU216HW,2013-01-03 22:55:00,
2013-01-03 15:57:00,34.2,14.4,30.02,WNW,293,6.3,8.5,44,0.00,,,0.00,WUHU216HW,2013-01-03 22:57:00,
2013-01-03 15:58:00,34.2,14.0,30.02,NW,315,5.4,8.5,43,0.00,,,0.00,WUHU216HW,2013-01-03 22:58:00,
2013-01-03 16:00:00,34.0,13.8,30.03,WNW,293,5.1,8.5,43,0.00,,,0.00,WUHU216HW,2013-01-03 23:00:00,
2013-01-03 16:02:00,33.8,14.0,30.03,NNW,338,6.3,8.5,44,0.00,,,0.00,WUHU216HW,2013-01-03 23:02:00,
2013-01-03 16:04:00,33.8,14.0,30.03,West,270,5.1,8.9,44,0.00,,,0.00,WUHU216HW,2013-01-03 23:04:00,
2013-01-03 16:05:00,33.8,14.0,30.02,WNW,293,9.8,9.8,44,0.00,,,0.00,WUHU216HW,2013-01-03 23:05:00,
2013-01-03 16:06:00,33.8,14.0,30.02,WNW,293,9.8,9.8,44,0.00,,,0.00,WUHU216HW,2013-01-03 23:06:00,
2013-01-03 16:07:00,33.8,14.0,30.03,WNW,293,6.9,9.8,44,0.00,,,0.00,WUHU216HW,2013-01-03 23:07:00,
2013-01-03 16:09:00,33.7,14.0,30.03,WSW,248,6.3,9.8,44,0.00,,,0.00,WUHU216HW,2013-01-03 23:09:00,
2013-01-03 16:10:00,33.5,13.8,30.02,NW,315,8.7,9.8,44,0.00,,,0.00,WUHU216HW,2013-01-03 23:10:00,
2013-01-03 16:11:00,33.5,13.8,30.02,NW,315,8.7,9.8,44,0.00,,,0.00,WUHU216HW,2013-01-03 23:11:00,
2013-01-03 16:12:00,33.5,13.8,30.02,WNW,293,5.4,9.8,44,0.00,,,0.00,WUHU216HW,2013-01-03 23:12:00,
2013-01-03 16:14:00,33.5,13.8,30.02,NW,315,5.4,9.8,44,0.00,,,0.00,WUHU216HW,2013-01-03 23:14:00,
2013-01-03 16:15:00,33.5,13.2,30.02,West,270,6.7,8.7,43,0.00,,,0.00,WUHU216HW,2013-01-03 23:15:00,
2013-01-03 16:16:00,33.5,13.2,30.02,West,270,6.7,8.7,43,0.00,,,0.00,WUHU216HW,2013-01-03 23:16:00,
2013-01-03 16:17:00,33.3,13.6,30.02,WNW,293,5.8,8.7,44,0.00,,,0.00,WUHU216HW,2013-01-03 23:17:00,
2013-01-03 16:19:00,33.1,13.4,30.03,WNW,293,2.5,8.7,44,0.00,,,0.00,WUHU216HW,2013-01-03 23:19:00,
2013-01-03 16:20:00,33.1,13.4,30.02,WSW,248,3.6,6.7,44,0.00,,,0.00,WUHU216HW,2013-01-03 23:20:00,
2013-01-03 16:21:00,33.1,13.4,30.02,North,0,3.1,6.7,44,0.00,,,0.00,WUHU216HW,2013-01-03 23:21:00,
2013-01-03 16:22:00,33.1,13.4,30.02,WSW,248,4.9,6.7,44,0.00,,,0.00,WUHU216HW,2013-01-03 23:22:00,
2013-01-03 16:24:00,32.9,13.2,30.02,WSW,248,6.9,6.9,44,0.00,,,0.00,WUHU216HW,2013-01-03 23:24:00,
2013-01-03 16:26:00,32.8,13.2,30.03,West,270,2.9,6.9,44,0.00,,,0.00,WUHU216HW,2013-01-03 23:26:00,
2013-01-03 16:27:00,32.8,13.2,30.02,West,270,4.5,6.9,44,0.00,,,0.00,WUHU216HW,2013-01-03 23:27:00,
2013-01-03 16:29:00,32.8,13.2,30.03,WNW,293,6.0,6.9,44,0.00,,,0.00,WUHU216HW,2013-01-03 23:29:00,
2013-01-03 16:31:00,32.8,13.2,30.03,WSW,248,5.8,6.9,44,0.00,,,0.00,WUHU216HW,2013-01-03 23:31:00,
2013-01-03 16:33:00,32.8,13.2,30.03,WSW,248,5.8,6.9,44,0.00,,,0.00,WUHU216HW,2013-01-03 23:33:00,
2013-01-03 16:34:00,32.8,13.2,30.03,West,270,3.6,6.5,44,0.00,,,0.00,WUHU216HW,2013-01-03 23:34:00,
2013-01-03 16:36:00,32.6,13.0,30.02,WNW,293,4.7,6.5,44,0.00,,,0.00,WUHU216HW,2013-01-03 23:36:00,
2013-01-03 16:38:00,32.6,13.0,30.02,SW,225,1.6,6.5,44,0.00,,,0.00,WUHU216HW,2013-01-03 23:38:00,
2013-01-03 16:40:00,32.6,13.4,30.02,West,270,1.1,6.5,45,0.00,,,0.00,WUHU216HW,2013-01-03 23:40:00,
2013-01-03 16:41:00,32.6,13.4,30.03,West,270,1.1,5.8,45,0.00,,,0.00,WUHU216HW,2013-01-03 23:41:00,
2013-01-03 16:42:00,32.4,13.3,30.02,SW,225,1.6,5.8,45,0.00,,,0.00,WUHU216HW,2013-01-03 23:42:00,
2013-01-03 16:43:00,32.4,13.3,30.02,SW,225,0.9,4.7,45,0.00,,,0.00,WUHU216HW,2013-01-03 23:43:00,
2013-01-03 16:45:00,32.2,13.2,30.03,NNW,338,0.4,4.7,45,0.00,,,0.00,WUHU216HW,2013-01-03 23:45:00,
2013-01-03 16:46:00,32.2,13.2,30.03,NNW,338,0.4,1.8,45,0.00,,,0.00,WUHU216HW,2013-01-03 23:46:00,
2013-01-03 16:47:00,32.2,13.2,30.03,NNW,338,0.4,1.8,45,0.00,,,0.00,WUHU216HW,2013-01-03 23:47:00,
2013-01-03 16:48:00,32.2,13.2,30.02,NW,315,8.5,8.5,45,0.00,,,0.00,WUHU216HW,2013-01-03 23:48:00,
2013-01-03 16:50:00,32.0,13.0,30.03,SW,225,1.6,8.5,45,0.00,,,0.00,WUHU216HW,2013-01-03 23:50:00,
2013-01-03 16:51:00,32.0,13.0,30.03,WNW,293,1.1,8.5,45,0.00,,,0.00,WUHU216HW,2013-01-03 23:51:00,
2013-01-03 16:52:00,32.0,13.0,30.03,WNW,293,1.1,8.5,45,0.00,,,0.00,WUHU216HW,2013-01-03 23:52:00,
2013-01-03 16:53:00,32.0,13.0,30.03,West,270,4.3,8.5,45,0.00,,,0.00,WUHU216HW,2013-01-03 23:53:00,
2013-01-03 16:56:00,31.7,12.2,30.03,WSW,248,4.7,8.5,44,0.00,,,0.00,WUHU216HW,2013-01-03 23:56:00,
2013-01-03 16:57:00,31.7,12.6,30.03,SSW,203,2.9,8.5,45,0.00,,,0.00,WUHU216HW,2013-01-03 23:57:00,
2013-01-03 16:58:00,31.7,12.6,30.03,SSW,203,0.2,7.6,45,0.00,,,0.00,WUHU216HW,2013-01-03 23:58:00,
2013-01-03 17:01:00,31.5,12.5,30.03,WNW,293,5.4,5.4,45,0.00,,,0.00,WUHU216HW,2013-01-04 00:01:00,
2013-01-03 17:02:00,31.5,12.5,30.03,West,270,5.8,5.8,45,0.00,,,0.00,WUHU216HW,2013-01-04 00:02:00,
2013-01-03 17:03:00,31.5,12.5,30.03,SW,225,1.8,5.8,45,0.00,,,0.00,WUHU216HW,2013-01-04 00:03:00,
2013-01-03 17:06:00,31.3,12.3,30.03,WSW,248,3.4,5.8,45,0.00,,,0.00,WUHU216HW,2013-01-04 00:06:00,
2013-01-03 17:07:00,31.3,12.3,30.03,WNW,293,4.0,5.8,45,0.00,,,0.00,WUHU216HW,2013-01-04 00:07:00,
2013-01-03 17:08:00,31.1,12.2,30.03,SW,225,1.8,5.8,45,0.00,,,0.00,WUHU216HW,2013-01-04 00:08:00,
2013-01-03 17:11:00,31.1,12.2,30.03,West,270,5.6,5.8,45,0.00,,,0.00,WUHU216HW,2013-01-04 00:11:00,
2013-01-03 17:12:00,31.0,12.0,30.03,WSW,248,2.9,5.6,45,0.00,,,0.00,WUHU216HW,2013-01-04 00:12:00,
2013-01-03 17:13:00,31.0,12.0,30.03,SW,225,5.8,5.8,45,0.00,,,0.00,WUHU216HW,2013-01-04 00:13:00,
2013-01-03 17:16:00,30.8,11.8,30.03,SW,225,8.1,8.1,45,0.00,,,0.00,WUHU216HW,2013-01-04 00:16:00,
2013-01-03 17:17:00,30.8,11.8,30.03,SW,225,6.7,8.1,45,0.00,,,0.00,WUHU216HW,2013-01-04 00:17:00,
2013-01-03 17:18:00,30.8,11.8,30.03,WSW,248,7.4,8.1,45,0.00,,,0.00,WUHU216HW,2013-01-04 00:18:00,
2013-01-03 17:21:00,30.6,11.7,30.03,West,270,7.4,8.1,45,0.00,,,0.00,WUHU216HW,2013-01-04 00:21:00,
2013-01-03 17:22:00,30.6,11.7,30.03,West,270,7.4,8.1,45,0.00,,,0.00,WUHU216HW,2013-01-04 00:22:00,
2013-01-03 17:23:00,30.6,12.2,30.03,NW,315,6.9,8.1,46,0.00,,,0.00,WUHU216HW,2013-01-04 00:23:00,
2013-01-03 17:26:00,30.4,12.0,30.03,West,270,3.1,7.4,46,0.00,,,0.00,WUHU216HW,2013-01-04 00:26:00,
2013-01-03 17:27:00,30.4,12.0,30.03,West,270,3.1,7.4,46,0.00,,,0.00,WUHU216HW,2013-01-04 00:27:00,
2013-01-03 17:28:00,30.4,12.0,30.03,South,180,6.3,7.4,46,0.00,,,0.00,WUHU216HW,2013-01-04 00:28:00,
2013-01-03 17:31:00,30.2,11.9,30.03,SW,225,3.4,6.9,46,0.00,,,0.00,WUHU216HW,2013-01-04 00:31:00,
2013-01-03 17:32:00,30.2,11.9,30.03,SW,225,1.3,6.9,46,0.00,,,0.00,WUHU216HW,2013-01-04 00:32:00,
2013-01-03 17:34:00,30.2,11.9,30.03,SSW,203,3.4,6.7,46,0.00,,,0.00,WUHU216HW,2013-01-04 00:34:00,
2013-01-03 17:36:00,30.1,11.7,30.03,SE,135,2.5,6.3,46,0.00,,,0.00,WUHU216HW,2013-01-04 00:36:00,
2013-01-03 17:37:00,29.9,11.5,30.03,WSW,248,4.7,6.3,46,0.00,,,0.00,WUHU216HW,2013-01-04 00:37:00,
2013-01-03 17:38:00,29.9,11.5,30.03,WSW,248,4.7,6.3,46,0.00,,,0.00,WUHU216HW,2013-01-04 00:38:00,
2013-01-03 17:39:00,29.9,11.5,30.04,SSW,203,5.1,5.6,46,0.00,,,0.00,WUHU216HW,2013-01-04 00:39:00,
2013-01-03 17:41:00,29.9,12.1,30.04,SSW,203,3.8,5.1,47,0.00,,,0.00,WUHU216HW,2013-01-04 00:41:00,
2013-01-03 17:42:00,29.9,12.1,30.04,SSW,203,4.0,5.1,47,0.00,,,0.00,WUHU216HW,2013-01-04 00:42:00,
2013-01-03 17:43:00,29.9,12.1,30.04,SSW,203,4.0,5.1,47,0.00,,,0.00,WUHU216HW,2013-01-04 00:43:00,
2013-01-03 17:44:00,29.7,11.9,30.04,SW,225,2.7,5.1,47,0.00,,,0.00,WUHU216HW,2013-01-04 00:44:00,
2013-01-03 17:46:00,29.5,11.7,30.04,SSW,203,8.7,8.7,47,0.00,,,0.00,WUHU216HW,2013-01-04 00:46:00,
2013-01-03 17:48:00,29.5,11.7,30.04,SSW,203,5.1,8.7,47,0.00,,,0.00,WUHU216HW,2013-01-04 00:48:00,
2013-01-03 17:49:00,29.5,11.7,30.04,SW,225,4.0,8.7,47,0.00,,,0.00,WUHU216HW,2013-01-04 00:49:00,
2013-01-03 17:52:00,29.5,11.7,30.03,WSW,248,8.5,8.7,47,0.00,,,0.00,WUHU216HW,2013-01-04 00:52:00,
2013-01-03 17:53:00,29.5,11.7,30.03,SSW,203,5.1,8.7,47,0.00,,,0.00,WUHU216HW,2013-01-04 00:53:00,
2013-01-03 17:54:00,29.5,11.7,30.03,SW,225,4.5,8.7,47,0.00,,,0.00,WUHU216HW,2013-01-04 00:54:00,
2013-01-03 17:57:00,29.5,11.7,30.04,WSW,248,6.7,8.5,47,0.00,,,0.00,WUHU216HW,2013-01-04 00:57:00,
2013-01-03 17:58:00,29.5,11.7,30.04,SSW,203,8.5,8.5,47,0.00,,,0.00,WUHU216HW,2013-01-04 00:58:00,
2013-01-03 17:59:00,29.5,11.7,30.04,SSW,203,8.5,8.5,47,0.00,,,0.00,WUHU216HW,2013-01-04 00:59:00,
2013-01-03 18:02:00,29.5,11.7,30.04,West,270,8.3,8.5,47,0.00,,,0.00,WUHU216HW,2013-01-04 01:02:00,
2013-01-03 18:03:00,29.5,11.7,30.04,West,270,8.5,8.5,47,0.00,,,0.00,WUHU216HW,2013-01-04 01:03:00,
2013-01-03 18:04:00,29.5,11.7,30.04,WSW,248,7.6,8.5,47,0.00,,,0.00,WUHU216HW,2013-01-04 01:04:00,
2013-01-03 18:07:00,29.3,11.5,30.04,WNW,293,7.4,8.5,47,0.00,,,0.00,WUHU216HW,2013-01-04 01:07:00,
2013-01-03 18:08:00,29.3,11.5,30.04,West,270,5.4,8.5,47,0.00,,,0.00,WUHU216HW,2013-01-04 01:08:00,
2013-01-03 18:09:00,29.2,11.3,30.04,WSW,248,4.9,8.5,47,0.00,,,0.00,WUHU216HW,2013-01-04 01:09:00,
2013-01-03 18:12:00,29.2,11.3,30.04,West,270,8.5,8.5,47,0.00,,,0.00,WUHU216HW,2013-01-04 01:12:00,
2013-01-03 18:13:00,29.2,11.3,30.03,SW,225,3.6,8.5,47,0.00,,,0.00,WUHU216HW,2013-01-04 01:13:00,
2013-01-03 18:14:00,29.2,11.3,30.03,WSW,248,10.1,10.1,47,0.00,,,0.00,WUHU216HW,2013-01-04 01:14:00,
2013-01-03 18:17:00,29.0,11.3,30.03,SW,225,6.7,10.1,47,0.00,,,0.00,WUHU216HW,2013-01-04 01:17:00,
2013-01-03 18:18:00,29.0,11.3,30.03,WNW,293,5.1,10.1,47,0.00,,,0.00,WUHU216HW,2013-01-04 01:18:00,
2013-01-03 18:19:00,29.0,11.3,30.03,SW,225,6.0,10.1,47,0.00,,,0.00,WUHU216HW,2013-01-04 01:19:00,
2013-01-03 18:22:00,28.8,11.1,30.03,WSW,248,6.3,10.1,47,0.00,,,0.00,WUHU216HW,2013-01-04 01:22:00,
2013-01-03 18:24:00,28.8,11.1,30.03,NW,315,8.1,10.1,47,0.00,,,0.00,WUHU216HW,2013-01-04 01:24:00,
2013-01-03 18:27:00,28.6,11.4,30.03,West,270,8.3,8.3,48,0.00,,,0.00,WUHU216HW,2013-01-04 01:27:00,
2013-01-03 18:29:00,28.6,11.4,30.03,WNW,293,4.0,8.3,48,0.00,,,0.00,WUHU216HW,2013-01-04 01:29:00,
2013-01-03 18:30:00,28.6,11.4,30.03,WSW,248,4.5,8.3,48,0.00,,,0.00,WUHU216HW,2013-01-04 01:30:00,
2013-01-03 18:33:00,28.4,11.3,30.03,West,270,4.9,8.3,48,0.00,,,0.00,WUHU216HW,2013-01-04 01:33:00,
2013-01-03 18:34:00,28.4,11.3,30.03,SSW,203,3.1,8.3,48,0.00,,,0.00,WUHU216HW,2013-01-04 01:34:00,
2013-01-03 18:35:00,28.4,11.3,30.03,SSW,203,3.1,8.3,48,0.00,,,0.00,WUHU216HW,2013-01-04 01:35:00,
2013-01-03 18:38:00,28.3,11.1,30.03,WSW,248,3.8,6.9,48,0.00,,,0.00,WUHU216HW,2013-01-04 01:38:00,
2013-01-03 18:39:00,28.3,11.1,30.03,WSW,248,4.3,6.9,48,0.00,,,0.00,WUHU216HW,2013-01-04 01:39:00,
2013-01-03 18:40:00,28.3,11.1,30.03,WSW,248,4.3,6.9,48,0.00,,,0.00,WUHU216HW,2013-01-04 01:40:00,
2013-01-03 18:43:00,28.1,10.9,30.03,West,270,4.7,6.9,48,0.00,,,0.00,WUHU216HW,2013-01-04 01:43:00,
2013-01-03 18:44:00,28.1,10.9,30.03,West,270,2.7,6.9,48,0.00,,,0.00,WUHU216HW,2013-01-04 01:44:00,
2013-01-03 18:45:00,28.1,10.9,30.03,West,270,2.7,6.9,48,0.00,,,0.00,WUHU216HW,2013-01-04 01:45:00,
2013-01-03 18:48:00,28.1,10.9,30.03,West,270,6.9,6.9,48,0.00,,,0.00,WUHU216HW,2013-01-04 01:48:00,
2013-01-03 18:49:00,28.1,10.9,30.03,West,270,5.8,6.9,48,0.00,,,0.00,WUHU216HW,2013-01-04 01:49:00,
2013-01-03 18:50:00,28.1,10.9,30.03,West,270,5.8,6.9,48,0.00,,,0.00,WUHU216HW,2013-01-04 01:50:00,
2013-01-03 18:53:00,27.9,10.7,30.03,West,270,5.6,6.9,48,0.00,,,0.00,WUHU216HW,2013-01-04 01:53:00,
2013-01-03 18:54:00,27.9,10.7,30.03,South,180,4.3,6.9,48,0.00,,,0.00,WUHU216HW,2013-01-04 01:54:00,
2013-01-03 18:55:00,27.9,10.7,30.03,South,180,4.3,6.9,48,0.00,,,0.00,WUHU216HW,2013-01-04 01:55:00,
2013-01-03 18:59:00,27.9,10.7,30.03,West,270,0.9,6.9,48,0.00,,,0.00,WUHU216HW,2013-01-04 01:59:00,
2013-01-03 19:00:00,27.9,10.7,30.03,West,270,3.4,6.5,48,0.00,,,0.00,WUHU216HW,2013-01-04 02:00:00,
2013-01-03 19:04:00,27.7,10.5,30.03,West,270,9.6,9.6,48,0.00,,,0.00,WUHU216HW,2013-01-04 02:04:00,
2013-01-03 19:05:00,27.7,10.5,30.03,West,270,3.4,9.6,48,0.00,,,0.00,WUHU216HW,2013-01-04 02:05:00,
2013-01-03 19:09:00,27.9,10.7,30.03,West,270,2.2,9.6,48,0.00,,,0.00,WUHU216HW,2013-01-04 02:09:00,
2013-01-03 19:10:00,27.7,10.5,30.03,WNW,293,4.0,9.6,48,0.00,,,0.00,WUHU216HW,2013-01-04 02:10:00,
2013-01-03 19:14:00,27.7,10.5,30.03,WSW,248,4.9,5.6,48,0.00,,,0.00,WUHU216HW,2013-01-04 02:14:00,
2013-01-03 19:15:00,27.7,10.5,30.03,SW,225,4.7,5.6,48,0.00,,,0.00,WUHU216HW,2013-01-04 02:15:00,
2013-01-03 19:16:00,27.7,10.5,30.03,SW,225,4.7,5.6,48,0.00,,,0.00,WUHU216HW,2013-01-04 02:16:00,
2013-01-03 19:19:00,27.7,10.5,30.03,NNW,338,4.3,5.6,48,0.00,,,0.00,WUHU216HW,2013-01-04 02:19:00,
2013-01-03 19:20:00,27.7,10.5,30.03,WSW,248,1.8,5.6,48,0.00,,,0.00,WUHU216HW,2013-01-04 02:20:00,
2013-01-03 19:21:00,27.7,10.5,30.03,WSW,248,1.8,5.6,48,0.00,,,0.00,WUHU216HW,2013-01-04 02:21:00,
2013-01-03 19:25:00,27.7,10.5,30.03,SW,225,3.8,5.4,48,0.00,,,0.00,WUHU216HW,2013-01-04 02:25:00,
2013-01-03 19:26:00,27.7,10.5,30.03,SW,225,3.8,5.4,48,0.00,,,0.00,WUHU216HW,2013-01-04 02:26:00,
2013-01-03 19:30:00,27.5,10.4,30.03,SSW,203,1.6,6.3,48,0.00,,,0.00,WUHU216HW,2013-01-04 02:30:00,
2013-01-03 19:31:00,27.4,10.2,30.03,West,270,4.9,6.3,48,0.00,,,0.00,WUHU216HW,2013-01-04 02:31:00,
2013-01-03 19:35:00,27.4,10.2,30.03,WSW,248,5.8,6.3,48,0.00,,,0.00,WUHU216HW,2013-01-04 02:35:00,
2013-01-03 19:36:00,27.4,10.2,30.03,WNW,293,6.0,6.3,48,0.00,,,0.00,WUHU216HW,2013-01-04 02:36:00,
2013-01-03 19:40:00,27.4,10.2,30.03,SW,225,4.7,6.0,48,0.00,,,0.00,WUHU216HW,2013-01-04 02:40:00,
2013-01-03 19:41:00,27.4,10.2,30.03,WNW,293,6.9,6.9,48,0.00,,,0.00,WUHU216HW,2013-01-04 02:41:00,
2013-01-03 19:42:00,27.4,10.2,30.03,WNW,293,6.9,6.9,48,0.00,,,0.00,WUHU216HW,2013-01-04 02:42:00,
2013-01-03 19:45:00,27.2,10.0,30.03,SW,225,4.7,6.9,48,0.00,,,0.00,WUHU216HW,2013-01-04 02:45:00,
2013-01-03 19:46:00,27.2,10.0,30.03,SW,225,4.7,6.9,48,0.00,,,0.00,WUHU216HW,2013-01-04 02:46:00,
2013-01-03 19:47:00,27.2,10.0,30.03,WSW,248,5.4,6.9,48,0.00,,,0.00,WUHU216HW,2013-01-04 02:47:00,
2013-01-03 19:50:00,27.2,10.0,30.03,WSW,248,3.1,6.9,48,0.00,,,0.00,WUHU216HW,2013-01-04 02:50:00,
2013-01-03 19:51:00,27.2,10.0,30.03,West,270,4.9,6.7,48,0.00,,,0.00,WUHU216HW,2013-01-04 02:51:00,
2013-01-03 19:52:00,27.2,10.0,30.03,West,270,4.9,6.7,48,0.00,,,0.00,WUHU216HW,2013-01-04 02:52:00,
2013-01-03 19:55:00,27.0,9.8,30.03,SSW,203,3.8,6.7,48,0.00,,,0.00,WUHU216HW,2013-01-04 02:55:00,
2013-01-03 19:56:00,27.0,9.8,30.03,WSW,248,5.1,6.7,48,0.00,,,0.00,WUHU216HW,2013-01-04 02:56:00,
2013-01-03 19:57:00,27.0,9.8,30.03,WSW,248,5.1,6.7,48,0.00,,,0.00,WUHU216HW,2013-01-04 02:57:00,
2013-01-03 20:00:00,27.0,9.8,30.03,West,270,4.9,6.5,48,0.00,,,0.00,WUHU216HW,2013-01-04 03:00:00,
2013-01-03 20:01:00,27.0,9.8,30.03,West,270,4.7,6.5,48,0.00,,,0.00,WUHU216HW,2013-01-04 03:01:00,
2013-01-03 20:02:00,27.0,9.8,30.03,WSW,248,4.0,6.5,48,0.00,,,0.00,WUHU216HW,2013-01-04 03:02:00,
2013-01-03 20:05:00,27.0,9.8,30.03,West,270,5.1,5.1,48,0.00,,,0.00,WUHU216HW,2013-01-04 03:05:00,
2013-01-03 20:06:00,27.0,9.8,30.03,WNW,293,7.6,7.6,48,0.00,,,0.00,WUHU216HW,2013-01-04 03:06:00,
2013-01-03 20:07:00,27.0,9.8,30.03,WSW,248,6.9,7.6,48,0.00,,,0.00,WUHU216HW,2013-01-04 03:07:00,
2013-01-03 20:10:00,27.0,9.8,30.03,West,270,4.7,7.6,48,0.00,,,0.00,WUHU216HW,2013-01-04 03:10:00,
2013-01-03 20:11:00,27.0,9.8,30.03,WSW,248,8.3,8.3,48,0.00,,,0.00,WUHU216HW,2013-01-04 03:11:00,
2013-01-03 20:12:00,27.0,9.8,30.03,WNW,293,8.1,8.3,48,0.00,,,0.00,WUHU216HW,2013-01-04 03:12:00,
2013-01-03 20:15:00,27.0,9.8,30.03,West,270,5.4,8.3,48,0.00,,,0.00,WUHU216HW,2013-01-04 03:15:00,
2013-01-03 20:17:00,27.0,9.8,30.03,WSW,248,6.0,8.3,48,0.00,,,0.00,WUHU216HW,2013-01-04 03:17:00,
2013-01-03 20:20:00,27.0,9.8,30.03,West,270,4.0,8.3,48,0.00,,,0.00,WUHU216HW,2013-01-04 03:20:00,
2013-01-03 20:22:00,27.0,9.8,30.02,West,270,5.8,6.0,48,0.00,,,0.00,WUHU216HW,2013-01-04 03:22:00,
2013-01-03 20:25:00,27.0,9.8,30.02,West,270,4.0,6.0,48,0.00,,,0.00,WUHU216HW,2013-01-04 03:25:00,
2013-01-03 20:27:00,27.0,9.8,30.02,NW,315,3.8,6.9,48,0.00,,,0.00,WUHU216HW,2013-01-04 03:27:00,
2013-01-03 20:28:00,27.0,9.8,30.02,NW,315,3.8,6.9,48,0.00,,,0.00,WUHU216HW,2013-01-04 03:28:00,
2013-01-03 20:30:00,27.0,9.8,30.02,SW,225,2.0,6.9,48,0.00,,,0.00,WUHU216HW,2013-01-04 03:30:00,
2013-01-03 20:32:00,27.0,9.8,30.02,WSW,248,1.6,6.9,48,0.00,,,0.00,WUHU216HW,2013-01-04 03:32:00,
2013-01-03 20:33:00,27.0,9.8,30.02,WSW,248,1.6,6.9,48,0.00,,,0.00,WUHU216HW,2013-01-04 03:33:00,
2013-01-03 20:36:00,27.0,9.8,30.02,WSW,248,4.3,6.9,48,0.00,,,0.00,WUHU216HW,2013-01-04 03:36:00,
2013-01-03 20:37:00,27.0,9.8,30.02,WSW,248,5.1,5.1,48,0.00,,,0.00,WUHU216HW,2013-01-04 03:37:00,
2013-01-03 20:38:00,27.0,9.8,30.02,WSW,248,5.1,5.1,48,0.00,,,0.00,WUHU216HW,2013-01-04 03:38:00,
2013-01-03 20:41:00,26.8,9.6,30.03,SW,225,4.3,5.1,48,0.00,,,0.00,WUHU216HW,2013-01-04 03:41:00,
2013-01-03 20:43:00,26.6,9.5,30.03,West,270,1.6,5.1,48,0.00,,,0.00,WUHU216HW,2013-01-04 03:43:00,
2013-01-03 20:46:00,26.6,9.5,30.03,SW,225,5.6,6.0,48,0.00,,,0.00,WUHU216HW,2013-01-04 03:46:00,
2013-01-03 20:48:00,26.5,9.3,30.03,SW,225,2.0,6.0,48,0.00,,,0.00,WUHU216HW,2013-01-04 03:48:00,
2013-01-03 20:51:00,26.3,9.2,30.03,WSW,248,4.7,6.0,48,0.00,,,0.00,WUHU216HW,2013-01-04 03:51:00,
2013-01-03 20:53:00,26.3,9.2,30.03,SSW,203,3.4,6.0,48,0.00,,,0.00,WUHU216HW,2013-01-04 03:53:00,
2013-01-03 20:54:00,26.3,9.2,30.03,SSW,203,3.4,6.0,48,0.00,,,0.00,WUHU216HW,2013-01-04 03:54:00,
2013-01-03 20:56:00,26.1,9.0,30.03,SSW,203,1.8,4.7,48,0.00,,,0.00,WUHU216HW,2013-01-04 03:56:00,
2013-01-03 20:58:00,25.9,8.8,30.03,WSW,248,4.3,4.7,48,0.00,,,0.00,WUHU216HW,2013-01-04 03:58:00,
2013-01-03 20:59:00,25.9,8.8,30.03,WSW,248,4.3,4.7,48,0.00,,,0.00,WUHU216HW,2013-01-04 03:59:00,
2013-01-03 21:01:00,25.7,8.6,30.03,SW,225,5.1,5.1,48,0.00,,,0.00,WUHU216HW,2013-01-04 04:01:00,
2013-01-03 21:03:00,25.7,8.6,30.03,SSW,203,4.0,5.1,48,0.00,,,0.00,WUHU216HW,2013-01-04 04:03:00,
2013-01-03 21:04:00,25.6,8.5,30.03,SW,225,6.3,6.3,48,0.00,,,0.00,WUHU216HW,2013-01-04 04:04:00,
2013-01-03 21:06:00,25.6,8.5,30.03,SW,225,3.4,6.3,48,0.00,,,0.00,WUHU216HW,2013-01-04 04:06:00,
2013-01-03 21:08:00,25.6,8.5,30.03,West,270,5.4,6.3,48,0.00,,,0.00,WUHU216HW,2013-01-04 04:08:00,
2013-01-03 21:09:00,25.6,8.5,30.02,SSW,203,3.4,6.3,48,0.00,,,0.00,WUHU216HW,2013-01-04 04:09:00,
2013-01-03 21:11:00,25.4,8.4,30.02,SW,225,5.4,6.3,48,0.00,,,0.00,WUHU216HW,2013-01-04 04:11:00,
2013-01-03 21:14:00,25.4,8.4,30.02,WSW,248,4.7,6.9,48,0.00,,,0.00,WUHU216HW,2013-01-04 04:14:00,
2013-01-03 21:16:00,25.2,8.6,30.02,SW,225,6.7,6.9,49,0.00,,,0.00,WUHU216HW,2013-01-04 04:16:00,
2013-01-03 21:19:00,25.2,8.6,30.02,SSW,203,4.5,6.9,49,0.00,,,0.00,WUHU216HW,2013-01-04 04:19:00,
2013-01-03 21:21:00,25.2,8.6,30.02,SW,225,3.4,6.9,49,0.00,,,0.00,WUHU216HW,2013-01-04 04:21:00,
2013-01-03 21:24:00,25.0,8.5,30.02,SW,225,5.4,6.7,49,0.00,,,0.00,WUHU216HW,2013-01-04 04:24:00,
2013-01-03 21:26:00,25.0,8.5,30.02,SSW,203,4.5,5.4,49,0.00,,,0.00,WUHU216HW,2013-01-04 04:26:00,
2013-01-03 21:29:00,25.0,8.5,30.02,SW,225,3.6,5.4,49,0.00,,,0.00,WUHU216HW,2013-01-04 04:29:00,
2013-01-03 21:31:00,25.0,8.5,30.02,SSW,203,5.6,5.6,49,0.00,,,0.00,WUHU216HW,2013-01-04 04:31:00,
2013-01-03 21:34:00,24.8,8.4,30.02,SW,225,6.9,6.9,49,0.00,,,0.00,WUHU216HW,2013-01-04 04:34:00,
2013-01-03 21:36:00,24.8,8.4,30.02,SW,225,3.4,6.9,49,0.00,,,0.00,WUHU216HW,2013-01-04 04:36:00,
2013-01-03 21:39:00,24.8,8.4,30.02,SW,225,5.4,6.9,49,0.00,,,0.00,WUHU216HW,2013-01-04 04:39:00,
2013-01-03 21:40:00,24.8,8.4,30.02,SW,225,5.4,6.9,49,0.00,,,0.00,WUHU216HW,2013-01-04 04:40:00,
2013-01-03 21:42:00,24.8,8.8,30.02,SSW,203,11.4,11.4,50,0.00,,,0.00,WUHU216HW,2013-01-04 04:42:00,
2013-01-03 21:44:00,24.8,8.8,30.02,SW,225,5.6,11.4,50,0.00,,,0.00,WUHU216HW,2013-01-04 04:44:00,
2013-01-03 21:45:00,24.8,8.8,30.02,SW,225,5.6,11.4,50,0.00,,,0.00,WUHU216HW,2013-01-04 04:45:00,
2013-01-03 21:47:00,24.8,8.8,30.02,SW,225,6.9,11.4,50,0.00,,,0.00,WUHU216HW,2013-01-04 04:47:00,
2013-01-03 21:49:00,24.8,8.8,30.02,SSW,203,1.8,11.4,50,0.00,,,0.00,WUHU216HW,2013-01-04 04:49:00,
2013-01-03 21:50:00,24.8,8.8,30.02,SW,225,6.3,11.4,50,0.00,,,0.00,WUHU216HW,2013-01-04 04:50:00,
2013-01-03 21:52:00,24.8,8.8,30.02,WSW,248,6.3,11.4,50,0.00,,,0.00,WUHU216HW,2013-01-04 04:52:00,
2013-01-03 21:54:00,24.8,8.8,30.02,West,270,5.4,6.9,50,0.00,,,0.00,WUHU216HW,2013-01-04 04:54:00,
2013-01-03 21:55:00,24.8,8.4,30.02,SW,225,4.3,6.9,49,0.00,,,0.00,WUHU216HW,2013-01-04 04:55:00,
2013-01-03 21:57:00,24.8,8.8,30.02,WSW,248,4.9,6.5,50,0.00,,,0.00,WUHU216HW,2013-01-04 04:57:00,
2013-01-03 21:59:00,24.8,8.8,30.02,SSW,203,4.0,6.5,50,0.00,,,0.00,WUHU216HW,2013-01-04 04:59:00,
2013-01-03 22:01:00,24.8,8.8,30.02,SW,225,5.6,6.5,50,0.00,,,0.00,WUHU216HW,2013-01-04 05:01:00,
2013-01-03 22:03:00,24.7,8.6,30.01,SW,225,7.8,8.7,50,0.00,,,0.00,WUHU216HW,2013-01-04 05:03:00,
2013-01-03 22:06:00,24.8,8.8,30.02,SSW,203,5.1,8.7,50,0.00,,,0.00,WUHU216HW,2013-01-04 05:06:00,
2013-01-03 22:08:00,24.8,8.8,30.01,WNW,293,5.4,8.7,50,0.00,,,0.00,WUHU216HW,2013-01-04 05:08:00,
2013-01-03 22:11:00,24.8,8.8,30.01,West,270,6.5,7.8,50,0.00,,,0.00,WUHU216HW,2013-01-04 05:11:00,
2013-01-03 22:13:00,24.8,8.8,30.02,SW,225,4.9,6.5,50,0.00,,,0.00,WUHU216HW,2013-01-04 05:13:00,
2013-01-03 22:16:00,25.0,9.0,30.02,SW,225,7.4,8.9,50,0.00,,,0.00,WUHU216HW,2013-01-04 05:16:00,
2013-01-03 22:18:00,25.0,9.0,30.02,West,270,4.7,8.9,50,0.00,,,0.00,WUHU216HW,2013-01-04 05:18:00,
2013-01-03 22:21:00,25.2,8.6,30.01,WSW,248,4.3,8.9,49,0.00,,,0.00,WUHU216HW,2013-01-04 05:21:00,
2013-01-03 22:22:00,25.2,8.6,30.01,West,270,6.3,8.9,49,0.00,,,0.00,WUHU216HW,2013-01-04 05:22:00,
2013-01-03 22:23:00,25.2,8.6,30.01,WSW,248,7.6,8.9,49,0.00,,,0.00,WUHU216HW,2013-01-04 05:23:00,
2013-01-03 22:27:00,25.2,8.6,30.01,WSW,248,3.6,7.6,49,0.00,,,0.00,WUHU216HW,2013-01-04 05:27:00,
2013-01-03 22:28:00,25.2,8.6,30.01,WSW,248,4.0,7.6,49,0.00,,,0.00,WUHU216HW,2013-01-04 05:28:00,
2013-01-03 22:32:00,25.0,8.5,30.01,WSW,248,3.4,7.6,49,0.00,,,0.00,WUHU216HW,2013-01-04 05:32:00,
2013-01-03 22:33:00,25.0,8.5,30.01,WSW,248,2.5,6.0,49,0.00,,,0.00,WUHU216HW,2013-01-04 05:33:00,
2013-01-03 22:37:00,25.0,8.5,30.01,West,270,5.4,7.2,49,0.00,,,0.00,WUHU216HW,2013-01-04 05:37:00,
2013-01-03 22:38:00,25.0,8.5,30.02,WSW,248,4.0,7.2,49,0.00,,,0.00,WUHU216HW,2013-01-04 05:38:00,
2013-01-03 22:39:00,25.0,8.5,30.02,WSW,248,4.0,7.2,49,0.00,,,0.00,WUHU216HW,2013-01-04 05:39:00,
2013-01-03 22:42:00,24.8,8.4,30.02,WSW,248,2.5,7.2,49,0.00,,,0.00,WUHU216HW,2013-01-04 05:42:00,
2013-01-03 22:43:00,24.8,8.8,30.01,WSW,248,1.8,7.2,50,0.00,,,0.00,WUHU216HW,2013-01-04 05:43:00,
2013-01-03 22:44:00,24.8,8.8,30.01,WSW,248,1.8,7.2,50,0.00,,,0.00,WUHU216HW,2013-01-04 05:44:00,
2013-01-03 22:47:00,24.8,8.8,30.01,SW,225,2.0,4.0,50,0.00,,,0.00,WUHU216HW,2013-01-04 05:47:00,
2013-01-03 22:48:00,24.8,8.8,30.01,West,270,2.9,4.0,50,0.00,,,0.00,WUHU216HW,2013-01-04 05:48:00,
2013-01-03 22:49:00,24.8,8.8,30.01,West,270,3.4,4.0,50,0.00,,,0.00,WUHU216HW,2013-01-04 05:49:00,
2013-01-03 22:52:00,24.8,8.8,30.01,West,270,2.2,4.7,50,0.00,,,0.00,WUHU216HW,2013-01-04 05:52:00,
2013-01-03 22:53:00,24.8,8.8,30.01,West,270,2.5,4.7,50,0.00,,,0.00,WUHU216HW,2013-01-04 05:53:00,
2013-01-03 22:54:00,24.8,8.8,30.01,West,270,2.5,4.7,50,0.00,,,0.00,WUHU216HW,2013-01-04 05:54:00,
2013-01-03 22:58:00,25.0,9.0,30.01,West,270,1.1,4.7,50,0.00,,,0.00,WUHU216HW,2013-01-04 05:58:00,
2013-01-03 22:59:00,25.0,9.0,30.01,West,270,1.8,4.7,50,0.00,,,0.00,WUHU216HW,2013-01-04 05:59:00,
2013-01-03 23:03:00,25.0,9.0,30.01,WSW,248,2.5,3.1,50,0.00,,,0.00,WUHU216HW,2013-01-04 06:03:00,
2013-01-03 23:04:00,25.0,9.0,30.01,SSE,158,1.1,2.5,50,0.00,,,0.00,WUHU216HW,2013-01-04 06:04:00,
2013-01-03 23:08:00,24.8,8.8,30.01,SW,225,0.9,2.7,50,0.00,,,0.00,WUHU216HW,2013-01-04 06:08:00,
2013-01-03 23:09:00,24.8,8.8,30.01,WSW,248,1.1,2.7,50,0.00,,,0.00,WUHU216HW,2013-01-04 06:09:00,
2013-01-03 23:13:00,24.7,8.2,30.01,West,270,1.6,3.1,49,0.00,,,0.00,WUHU216HW,2013-01-04 06:13:00,
2013-01-03 23:14:00,24.7,8.2,30.01,West,270,1.6,3.1,49,0.00,,,0.00,WUHU216HW,2013-01-04 06:14:00,
2013-01-03 23:18:00,24.5,8.5,30.01,WSW,248,1.6,3.1,50,0.00,,,0.00,WUHU216HW,2013-01-04 06:18:00,
2013-01-03 23:19:00,24.5,8.5,30.01,WSW,248,1.8,3.1,50,0.00,,,0.00,WUHU216HW,2013-01-04 06:19:00,
2013-01-03 23:20:00,24.5,8.5,30.01,WSW,248,1.8,3.1,50,0.00,,,0.00,WUHU216HW,2013-01-04 06:20:00,
2013-01-03 23:23:00,24.1,8.2,30.01,West,270,1.6,2.2,50,0.00,,,0.00,WUHU216HW,2013-01-04 06:23:00,
2013-01-03 23:24:00,24.1,8.2,30.01,West,270,1.6,2.2,50,0.00,,,0.00,WUHU216HW,2013-01-04 06:24:00,
2013-01-03 23:25:00,24.1,8.2,30.01,West,270,1.6,2.2,50,0.00,,,0.00,WUHU216HW,2013-01-04 06:25:00,
2013-01-03 23:28:00,24.1,8.2,30.01,West,270,3.1,3.1,50,0.00,,,0.00,WUHU216HW,2013-01-04 06:28:00,
2013-01-03 23:29:00,24.1,8.2,30.01,West,270,3.1,3.1,50,0.00,,,0.00,WUHU216HW,2013-01-04 06:29:00,
2013-01-03 23:30:00,24.1,8.2,30.01,West,270,3.6,5.4,50,0.00,,,0.00,WUHU216HW,2013-01-04 06:30:00,
2013-01-03 23:33:00,24.1,8.2,30.01,WSW,248,3.8,5.4,50,0.00,,,0.00,WUHU216HW,2013-01-04 06:33:00,
2013-01-03 23:34:00,24.1,8.2,30.01,WSW,248,3.8,5.4,50,0.00,,,0.00,WUHU216HW,2013-01-04 06:34:00,
2013-01-03 23:35:00,23.9,8.0,30.01,West,270,2.7,5.4,50,0.00,,,0.00,WUHU216HW,2013-01-04 06:35:00,
2013-01-03 23:38:00,24.1,8.2,30.01,West,270,3.4,6.0,50,0.00,,,0.00,WUHU216HW,2013-01-04 06:38:00,
2013-01-03 23:39:00,24.1,8.2,30.01,SW,225,3.4,6.0,50,0.00,,,0.00,WUHU216HW,2013-01-04 06:39:00,
2013-01-03 23:40:00,23.9,8.0,30.01,SW,225,2.2,6.0,50,0.00,,,0.00,WUHU216HW,2013-01-04 06:40:00,
2013-01-03 23:43:00,24.1,8.2,30.00,SSW,203,3.4,6.0,50,0.00,,,0.00,WUHU216HW,2013-01-04 06:43:00,
2013-01-03 23:44:00,23.9,8.0,30.00,WSW,248,6.7,6.7,50,0.00,,,0.00,WUHU216HW,2013-01-04 06:44:00,
2013-01-03 23:45:00,23.9,8.0,30.00,SW,225,4.7,6.7,50,0.00,,,0.00,WUHU216HW,2013-01-04 06:45:00,
2013-01-03 23:48:00,23.9,8.0,30.00,SSW,203,3.6,6.7,50,0.00,,,0.00,WUHU216HW,2013-01-04 06:48:00,
2013-01-03 23:49:00,23.9,8.0,30.00,WSW,248,5.4,6.7,50,0.00,,,0.00,WUHU216HW,2013-01-04 06:49:00,
2013-01-03 23:50:00,23.9,8.0,30.00,SSW,203,4.3,6.7,50,0.00,,,0.00,WUHU216HW,2013-01-04 06:50:00,
2013-01-03 23:53:00,23.8,8.3,30.00,South,180,6.3,6.7,51,0.00,,,0.00,WUHU216HW,2013-01-04 06:53:00,
2013-01-03 23:55:00,23.8,8.3,30.00,WSW,248,4.5,6.3,51,0.00,,,0.00,WUHU216HW,2013-01-04 06:55:00,
2013-01-03 23:56:00,23.8,8.3,30.00,SW,225,5.4,6.3,51,0.00,,,0.00,WUHU216HW,2013-01-04 06:56:00,
2013-01-03 23:58:00,23.8,8.3,30.00,WSW,248,3.4,6.3,51,0.00,,,0.00,WUHU216HW,2013-01-04 06:58:00,